M I D A S
Marine Information and Data Acquisition System
Tripno 1308 of the Zeeleeuw from 2007-05-22 11:38:09 to 2007-05-22 13:01:26
Back to CruiseResearch ActivitiesStationsMapUnderway DataData graphs

EquipmentUnitsComment
TimeDGPSUTC
LatitudeDGPSDM.mWGS84
LongitudeDGPSDM.mWGS84
TemperatureSBE03/SBE38deg celciusITS90
ConductivitySBE21S/mITS90
SalinitySBE21 Practical Salinity Units
ChlorophylAChelsea fluorimeterg/lCalibrated in Aceton
Missing or incorrect values are displayed as -999
Sea surface data collected by the RV Zeeleeuw from 2007-05-22 07:30:53 to 2007-05-22 13:35:04
                                                                                    Next 1000 lines
Time Latitude Longitude Temperature Conductivity Salinity ChlorophylA
2007-05-22 07:31:03 51°13.6 2°56.097 18.5253 0.01384 0.075049 -2.871232
2007-05-22 07:31:08 51°13.6 2°56.096 18.5 0.01384 0.075049 -2.871232
2007-05-22 07:31:13 51°13.601 2°56.095 18.4745 0.01384 0.075049 -2.871232
2007-05-22 07:31:18 51°13.601 2°56.093 18.479 0.01384 0.07505 -2.871232
2007-05-22 07:31:23 51°13.602 2°56.09 18.4772 0.01384 0.07505 -2.871232
2007-05-22 07:31:28 51°13.602 2°56.087 18.49 0.01384 0.07505 -2.871232
2007-05-22 07:31:33 51°13.604 2°56.083 18.5265 0.01384 0.075052 -2.871232
2007-05-22 07:31:38 51°13.605 2°56.077 18.5442 0.01384 0.075052 -2.871232
2007-05-22 07:31:43 51°13.607 2°56.071 18.5294 0.01384 0.075053 -2.871232
2007-05-22 07:31:48 51°13.609 2°56.065 18.535 0.01384 0.075053 -2.871232
2007-05-22 07:31:53 51°13.611 2°56.058 18.5298 0.01384 0.075053 -2.871232
2007-05-22 07:31:58 51°13.613 2°56.05 18.5123 0.01384 0.075053 -2.871232
2007-05-22 07:32:03 51°13.616 2°56.041 18.5705 0.01384 0.075054 -2.871232
2007-05-22 07:32:08 51°13.618 2°56.032 18.5406 0.01384 0.075054 -2.871232
2007-05-22 07:32:13 51°13.621 2°56.023 18.5303 0.01384 0.075054 -2.871232
2007-05-22 07:32:18 51°13.624 2°56.013 18.5548 0.01384 0.075054 -2.871232
2007-05-22 07:32:23 51°13.627 2°56.003 18.5509 0.01384 0.075054 -2.871232
2007-05-22 07:32:28 51°13.63 2°55.993 18.5717 0.01384 0.075055 -2.871232
2007-05-22 07:32:33 51°13.633 2°55.982 18.5686 0.01384 0.075055 -2.871232
2007-05-22 07:32:38 51°13.636 2°55.971 18.5681 0.01384 0.075055 -2.871232
2007-05-22 07:32:43 51°13.64 2°55.96 18.585 0.01384 0.075056 -2.871232
2007-05-22 07:32:48 51°13.643 2°55.949 18.577 0.01384 0.075056 -2.871232
2007-05-22 07:32:53 51°13.647 2°55.938 18.5681 0.01384 0.075056 -2.871232
2007-05-22 07:32:58 51°13.651 2°55.927 18.564 0.01384 0.075056 -2.871232
2007-05-22 07:33:03 51°13.654 2°55.917 18.558 0.01384 0.075056 -2.871232
2007-05-22 07:33:08 51°13.658 2°55.907 18.5573 0.01384 0.075057 -2.871232
2007-05-22 07:33:13 51°13.661 2°55.897 18.5575 0.01384 0.075057 -2.871232
2007-05-22 07:33:18 51°13.664 2°55.888 18.5598 0.01384 0.075057 -2.871232
2007-05-22 07:33:23 51°13.667 2°55.879 18.5605 0.01384 0.075057 -2.871232
2007-05-22 07:33:28 51°13.669 2°55.87 18.5601 0.01384 0.075057 -2.871232
2007-05-22 07:33:33 51°13.672 2°55.862 18.5583 0.01384 0.075057 -2.871232
2007-05-22 07:33:38 51°13.674 2°55.853 18.5563 0.01384 0.075059 -2.871232
2007-05-22 07:33:43 51°13.677 2°55.845 18.5562 0.01384 0.075059 -2.871232
2007-05-22 07:33:48 51°13.679 2°55.837 18.5515 0.01384 0.075059 -2.871232
2007-05-22 07:33:53 51°13.681 2°55.829 18.5497 0.01384 0.075059 -2.871232
2007-05-22 07:33:58 51°13.683 2°55.821 18.5499 0.01384 0.07506 -2.871232
2007-05-22 07:34:03 51°13.684 2°55.814 18.5519 0.01384 0.07506 -2.871232
2007-05-22 07:34:08 51°13.686 2°55.807 18.5584 0.01384 0.07506 -2.871232
2007-05-22 07:34:13 51°13.687 2°55.8 18.5703 0.01384 0.07506 -2.871232
2007-05-22 07:34:18 51°13.689 2°55.793 18.5623 0.01384 0.075061 -2.871232
2007-05-22 07:34:23 51°13.69 2°55.786 18.5626 0.01384 0.075061 -2.871232
2007-05-22 07:34:28 51°13.691 2°55.779 18.5639 0.01384 0.075061 -2.871232
2007-05-22 07:34:33 51°13.692 2°55.773 18.5665 0.01384 0.075061 -2.871232
2007-05-22 07:34:38 51°13.693 2°55.766 18.5564 0.01384 0.075062 -2.871232
2007-05-22 07:34:43 51°13.693 2°55.76 18.5763 0.01384 0.075061 -2.871232
2007-05-22 07:34:48 51°13.694 2°55.754 18.5837 0.01384 0.075062 -2.871232
2007-05-22 07:34:53 51°13.695 2°55.748 18.5647 0.01384 0.075062 -2.871232
2007-05-22 07:34:58 51°13.695 2°55.742 18.5644 0.01384 0.075062 -2.871232
2007-05-22 07:35:03 51°13.695 2°55.736 18.5465 0.01384 0.075062 -2.871232
2007-05-22 07:35:08 51°13.695 2°55.731 18.5545 0.01384 0.075062 -2.871232
2007-05-22 07:35:13 51°13.696 2°55.725 18.5562 0.01384 0.075062 -2.871232
2007-05-22 07:35:18 51°13.696 2°55.721 18.5619 0.01384 0.075062 -2.871232
2007-05-22 07:35:23 51°13.696 2°55.716 18.5597 0.01384 0.075062 -2.871232
2007-05-22 07:35:28 51°13.696 2°55.713 18.5594 0.01384 0.075062 -2.871232
2007-05-22 07:35:33 51°13.696 2°55.71 18.5724 0.01384 0.075062 -2.871232
2007-05-22 07:35:38 51°13.696 2°55.708 18.5962 0.01384 0.075063 -2.871232
2007-05-22 07:35:43 51°13.696 2°55.707 18.6186 0.01384 0.075063 -2.871232
2007-05-22 07:35:48 51°13.697 2°55.707 18.5903 0.01384 0.075062 -2.871232
2007-05-22 07:35:53 51°13.697 2°55.708 18.6136 0.01384 0.075062 -2.871232
2007-05-22 07:35:58 51°13.698 2°55.71 18.627 0.01384 0.075063 -2.871232
2007-05-22 07:36:03 51°13.699 2°55.712 18.6284 0.01384 0.075063 -2.871232
2007-05-22 07:36:08 51°13.701 2°55.714 18.6327 0.01384 0.075063 -2.871232
2007-05-22 07:36:13 51°13.703 2°55.716 18.6342 0.01384 0.075063 -2.871232
2007-05-22 07:36:18 51°13.705 2°55.719 18.633 0.01384 0.075063 -2.871232
2007-05-22 07:36:23 51°13.708 2°55.721 18.6361 0.01384 0.075063 -2.871232
2007-05-22 07:36:28 51°13.711 2°55.723 18.6427 0.01384 0.075063 -2.871232
2007-05-22 07:36:33 51°13.714 2°55.724 18.6258 0.01384 0.075064 -2.871232
2007-05-22 07:36:38 51°13.718 2°55.725 18.6144 0.01384 0.075064 -2.871232
2007-05-22 07:36:43 51°13.721 2°55.726 18.5885 0.01384 0.075064 -2.871232
2007-05-22 07:36:48 51°13.724 2°55.726 18.5643 0.01384 0.075064 -2.871232
2007-05-22 07:36:53 51°13.727 2°55.726 18.5744 0.01384 0.075064 -2.871232
2007-05-22 07:36:58 51°13.731 2°55.725 18.5851 0.01384 0.075066 -2.871232
2007-05-22 07:37:03 51°13.734 2°55.725 18.593 0.01384 0.075066 -2.871232
2007-05-22 07:37:08 51°13.738 2°55.723 18.6273 0.01384 0.075066 -2.871232
2007-05-22 07:37:13 51°13.743 2°55.721 18.6441 0.01384 0.075066 -2.871232
2007-05-22 07:37:18 51°13.748 2°55.719 18.6592 0.01384 0.075066 -2.871232
2007-05-22 07:37:23 51°13.754 2°55.715 18.6391 0.01384 0.075066 -2.871232
2007-05-22 07:37:28 51°13.76 2°55.71 18.6413 0.01384 0.075066 -2.871232
2007-05-22 07:37:33 51°13.767 2°55.704 18.5874 0.01384 0.075066 -2.871232
2007-05-22 07:37:38 51°13.776 2°55.696 18.5757 0.01384 0.075067 -2.871232
2007-05-22 07:37:43 51°13.785 2°55.688 18.5456 0.01384 0.075066 -2.871232
2007-05-22 07:37:48 51°13.794 2°55.679 18.4779 0.01384 0.075066 -2.871232
2007-05-22 07:37:53 51°13.805 2°55.67 18.4034 0.01384 0.075066 -2.871232
2007-05-22 07:37:58 51°13.816 2°55.661 18.4818 0.01384 0.075067 -2.871232
2007-05-22 07:38:03 51°13.828 2°55.65 18.43 0.01384 0.075067 -2.871232
2007-05-22 07:38:08 51°13.84 2°55.64 18.3681 0.01384 0.075067 -2.871232
2007-05-22 07:38:13 51°13.852 2°55.629 18.3688 0.01384 0.075067 -2.871232
2007-05-22 07:38:18 51°13.866 2°55.619 18.4156 0.01384 0.075067 -2.871232
2007-05-22 07:38:23 51°13.878 2°55.609 18.4364 0.01384 0.075067 -2.871232
2007-05-22 07:38:28 51°13.89 2°55.599 18.4637 0.01384 0.075068 -2.871232
2007-05-22 07:38:33 51°13.903 2°55.589 18.3832 0.01384 0.075068 -2.871232
2007-05-22 07:38:38 51°13.915 2°55.579 18.4606 0.01384 0.075068 -2.871232
2007-05-22 07:38:43 51°13.927 2°55.569 18.45 0.01384 0.075068 -2.871232
2007-05-22 07:38:48 51°13.94 2°55.56 18.4454 0.01384 0.075068 -2.871232
2007-05-22 07:38:53 51°13.952 2°55.551 18.4544 0.01384 0.075068 -2.871232
2007-05-22 07:38:58 51°13.964 2°55.542 18.4746 0.01384 0.075068 -2.871232
2007-05-22 07:39:03 51°13.976 2°55.533 18.502 0.01384 0.075069 -2.871232
2007-05-22 07:39:08 51°13.988 2°55.525 18.5029 0.01384 0.075069 -2.871232
2007-05-22 07:39:13 51°13.999 2°55.516 18.5344 0.01384 0.075069 -2.871232
2007-05-22 07:39:18 51°14.01 2°55.508 18.5468 0.01384 0.07507 -2.871232
2007-05-22 07:39:23 51°14.021 2°55.5 18.5691 0.01384 0.07507 -2.871232
2007-05-22 07:39:28 51°14.031 2°55.493 18.5592 0.01384 0.07507 -2.871232
2007-05-22 07:39:33 51°14.04 2°55.486 18.5728 0.01384 0.075071 -2.871232
2007-05-22 07:39:38 51°14.05 2°55.479 18.5707 0.01384 0.075071 -2.871232
2007-05-22 07:39:43 51°14.059 2°55.472 18.5724 0.01384 0.075071 -2.871232
2007-05-22 07:39:48 51°14.068 2°55.466 18.5671 0.01384 0.075073 -2.871232
2007-05-22 07:39:53 51°14.076 2°55.46 18.5691 0.01384 0.075073 -2.871232
2007-05-22 07:39:58 51°14.085 2°55.454 18.5707 0.01384 0.075074 -2.871232
2007-05-22 07:40:03 51°14.093 2°55.449 18.5477 0.01384 0.075074 -2.871232
2007-05-22 07:40:08 51°14.102 2°55.444 18.5683 0.01384 0.075074 -2.871232
2007-05-22 07:40:13 51°14.11 2°55.439 18.5825 0.01384 0.075075 -2.871232
2007-05-22 07:40:18 51°14.118 2°55.434 18.5966 0.01384 0.075075 -2.871232
2007-05-22 07:40:23 51°14.127 2°55.428 18.6099 0.01384 0.075075 -2.871232
2007-05-22 07:40:28 51°14.135 2°55.423 18.6145 0.01384 0.075076 -2.871232
2007-05-22 07:40:33 51°14.144 2°55.417 18.6138 0.01384 0.075076 -2.871232
2007-05-22 07:40:38 51°14.154 2°55.41 18.6103 0.01384 0.075077 -2.871232
2007-05-22 07:40:43 51°14.164 2°55.403 18.6182 0.01384 0.075078 -2.871232
2007-05-22 07:40:48 51°14.174 2°55.395 18.5989 0.01384 0.075078 -2.871232
2007-05-22 07:40:53 51°14.185 2°55.386 18.5971 0.01384 0.075078 -2.871232
2007-05-22 07:40:58 51°14.195 2°55.376 18.5807 0.01384 0.07508 -2.871232
2007-05-22 07:41:03 51°14.206 2°55.365 18.5522 0.01384 0.07508 -2.871232
2007-05-22 07:41:08 51°14.217 2°55.352 18.5841 0.01384 0.075081 -2.871232
2007-05-22 07:41:13 51°14.228 2°55.339 18.5225 0.01384 0.075082 -2.871232
2007-05-22 07:41:18 51°14.24 2°55.325 18.5622 0.01384 0.075082 -2.871232
2007-05-22 07:41:23 51°14.251 2°55.31 18.6012 0.01384 0.075082 -2.871232
2007-05-22 07:41:28 51°14.262 2°55.294 18.5178 0.01384 0.075083 -2.871232
2007-05-22 07:41:33 51°14.274 2°55.277 18.4975 0.01384 0.075084 -2.871232
2007-05-22 07:41:38 51°14.284 2°55.259 18.57 0.01384 0.075084 -2.871232
2007-05-22 07:41:43 51°14.295 2°55.24 18.592 0.01384 0.075085 -2.871232
2007-05-22 07:41:48 51°14.305 2°55.22 18.5471 0.01384 0.075087 -2.871232
2007-05-22 07:41:53 51°14.314 2°55.2 18.5412 0.01384 0.075087 -2.871232
2007-05-22 07:41:58 51°14.324 2°55.179 18.5384 0.01384 0.075088 -2.871232
2007-05-22 07:42:03 51°14.332 2°55.158 18.5167 0.01384 0.075088 -2.871232
2007-05-22 07:42:08 51°14.341 2°55.135 18.5367 0.01384 0.07509 -2.871232
2007-05-22 07:42:13 51°14.349 2°55.113 18.5332 0.01384 0.07509 -2.871232
2007-05-22 07:42:18 51°14.357 2°55.089 18.5468 0.01384 0.075091 -2.871232
2007-05-22 07:42:23 51°14.365 2°55.066 18.4675 0.01384 0.075091 -2.871232
2007-05-22 07:42:28 51°14.372 2°55.042 18.5461 0.01384 0.075092 -2.871232
2007-05-22 07:42:33 51°14.379 2°55.017 18.5311 0.01384 0.075094 -2.871232
2007-05-22 07:42:38 51°14.386 2°54.993 18.4443 0.01384 0.075095 -2.871232
2007-05-22 07:42:43 51°14.393 2°54.968 18.4485 0.01384 0.075096 -2.871232
2007-05-22 07:42:48 51°14.399 2°54.942 18.5309 0.01384 0.075097 -2.871232
2007-05-22 07:42:53 51°14.405 2°54.916 18.5197 0.01384 0.075097 -2.871232
2007-05-22 07:42:58 51°14.41 2°54.89 18.5231 0.01384 0.075098 -2.871232
2007-05-22 07:43:03 51°14.414 2°54.863 18.5352 0.01384 0.0751 -2.871232
2007-05-22 07:43:08 51°14.418 2°54.835 18.5002 0.01384 0.075101 -2.871232
2007-05-22 07:43:13 51°14.422 2°54.807 18.4801 0.01384 0.075101 -2.871232
2007-05-22 07:43:18 51°14.426 2°54.779 18.4326 0.01384 0.075103 -2.871232
2007-05-22 07:43:23 51°14.43 2°54.75 18.4799 0.01384 0.075103 -2.871232
2007-05-22 07:43:28 51°14.433 2°54.721 18.503 0.01384 0.075103 -2.871232
2007-05-22 07:43:33 51°14.437 2°54.692 18.5023 0.01384 0.075104 -2.871232
2007-05-22 07:43:38 51°14.439 2°54.662 18.4932 0.01384 0.075105 -2.871232
2007-05-22 07:43:43 51°14.442 2°54.633 18.4689 0.01384 0.075107 -2.871232
2007-05-22 07:43:48 51°14.445 2°54.603 18.4107 0.01384 0.075108 -2.871232
2007-05-22 07:43:53 51°14.448 2°54.573 18.4798 0.01384 0.075108 -2.871232
2007-05-22 07:43:58 51°14.452 2°54.543 18.4548 0.01384 0.075109 -2.871232
2007-05-22 07:44:03 51°14.455 2°54.513 18.4563 0.01384 0.07511 -2.871232
2007-05-22 07:44:08 51°14.458 2°54.483 18.4533 0.01384 0.075111 -2.871232
2007-05-22 07:44:13 51°14.461 2°54.453 18.3903 0.01384 0.075112 -2.871232
2007-05-22 07:44:18 51°14.464 2°54.423 18.4709 0.01384 0.075114 -2.871232
2007-05-22 07:44:23 51°14.466 2°54.393 18.4733 0.01384 0.075114 -2.871232
2007-05-22 07:44:28 51°14.468 2°54.363 18.5114 0.01384 0.075115 -2.871232
2007-05-22 07:44:33 51°14.468 2°54.333 18.5312 0.01384 0.075116 -2.871232
2007-05-22 07:44:38 51°14.467 2°54.302 18.5104 0.01384 0.075117 -2.871232
2007-05-22 07:44:43 51°14.464 2°54.273 18.479 0.01384 0.075118 -2.871232
2007-05-22 07:44:48 51°14.459 2°54.245 18.5281 0.01384 0.075119 -2.871232
2007-05-22 07:44:53 51°14.452 2°54.218 18.4749 0.01384 0.075119 -2.871232
2007-05-22 07:44:58 51°14.444 2°54.192 18.3666 0.01384 0.075121 -2.871232
2007-05-22 07:45:03 51°14.436 2°54.165 18.4212 0.01384 0.075122 -2.871232
2007-05-22 07:45:08 51°14.427 2°54.139 18.3809 0.01384 0.075124 -2.871232
2007-05-22 07:45:13 51°14.418 2°54.113 18.3906 0.01384 0.075125 -2.871232
2007-05-22 07:45:18 51°14.409 2°54.087 18.3671 0.01384 0.075125 -2.871232
2007-05-22 07:45:23 51°14.399 2°54.062 18.4361 0.01384 0.075125 -2.871232
2007-05-22 07:45:28 51°14.389 2°54.036 18.4667 0.01384 0.075126 -2.871232
2007-05-22 07:45:33 51°14.378 2°54.012 18.3675 0.01384 0.075128 -2.871232
2007-05-22 07:45:38 51°14.368 2°53.986 18.439 0.01384 0.075129 -2.871232
2007-05-22 07:45:43 51°14.357 2°53.961 18.3627 0.01384 0.075131 -2.871232
2007-05-22 07:45:48 51°14.346 2°53.936 18.4182 0.01384 0.075131 -2.871232
2007-05-22 07:45:53 51°14.336 2°53.911 18.3927 0.01384 0.075131 -2.871232
2007-05-22 07:45:58 51°14.325 2°53.886 18.4209 0.01384 0.075132 -2.871232
2007-05-22 07:46:03 51°14.314 2°53.861 18.4369 0.01384 0.075133 -2.871232
2007-05-22 07:46:08 51°14.303 2°53.836 18.403 0.01384 0.075136 -2.871232
2007-05-22 07:46:13 51°14.293 2°53.811 18.4695 0.01384 0.075136 -2.871232
2007-05-22 07:46:18 51°14.282 2°53.786 16.6145 0.01384 0.075173 -2.871232
2007-05-22 07:46:23 51°14.271 2°53.761 16.2708 0.01384 0.075173 -2.871232
2007-05-22 07:46:28 51°14.261 2°53.736 15.6851 0.01384 0.075257 -2.871232
2007-05-22 07:46:33 51°14.25 2°53.711 15.3523 1.632571 10.681949 -2.871232
2007-05-22 07:46:38 51°14.239 2°53.686 15.1636 3.496777 24.204464 -2.871232
2007-05-22 07:46:43 51°14.229 2°53.66 14.9914 3.632048 25.349888 -2.871232
2007-05-22 07:46:48 51°14.219 2°53.636 14.8653 3.674946 26.116194 -2.871232
2007-05-22 07:46:53 51°14.208 2°53.61 14.856 3.674946 26.116194 -2.871232
2007-05-22 07:46:58 51°14.197 2°53.585 14.8258 3.79235 27.470836 -2.871232
2007-05-22 07:47:03 51°14.187 2°53.56 14.9081 3.823654 28.133577 -2.871232
2007-05-22 07:47:08 51°14.177 2°53.535 14.8599 3.947629 29.560901 -2.871232
2007-05-22 07:47:13 51°14.166 2°53.51 14.8004 4.007246 30.337149 -2.871232
2007-05-22 07:47:18 51°14.155 2°53.485 14.7633 4.016789 30.61314 -2.871232
2007-05-22 07:47:23 51°14.145 2°53.46 14.6919 4.016789 30.61314 -2.871232
2007-05-22 07:47:28 51°14.134 2°53.435 14.7236 4.04178 30.988012 -2.871232
2007-05-22 07:47:33 51°14.123 2°53.411 14.6743 4.059616 31.223882 -2.871232
2007-05-22 07:47:38 51°14.113 2°53.385 14.6445 4.046863 31.144915 -2.871232
2007-05-22 07:47:43 51°14.103 2°53.36 14.6642 4.055055 31.2533 -2.871232
2007-05-22 07:47:48 51°14.092 2°53.335 14.6522 4.063662 31.380899 -2.871232
2007-05-22 07:47:53 51°14.082 2°53.309 14.6438 4.063662 31.380899 -2.871232
2007-05-22 07:47:58 51°14.071 2°53.284 14.6241 4.071855 31.501888 -2.871232
2007-05-22 07:48:03 51°14.061 2°53.259 14.6578 4.076833 31.582832 -2.871232
2007-05-22 07:48:08 51°14.051 2°53.233 14.6108 4.079841 31.644116 -2.871232
2007-05-22 07:48:13 51°14.04 2°53.208 14.5955 4.08036 31.672659 -2.871232
2007-05-22 07:48:18 51°14.03 2°53.183 14.6078 4.070924 31.606543 -2.871232
2007-05-22 07:48:23 51°14.02 2°53.157 14.6292 4.070924 31.606543 -2.871232
2007-05-22 07:48:28 51°14.009 2°53.131 14.5784 4.07922 31.691131 -2.871232
2007-05-22 07:48:33 51°13.999 2°53.105 14.5881 4.078805 31.698889 -2.871232
2007-05-22 07:48:38 51°13.989 2°53.079 14.583 4.077872 31.701448 -2.871232
2007-05-22 07:48:43 51°13.98 2°53.053 14.592 4.056407 31.533815 -2.871232
2007-05-22 07:48:48 51°13.969 2°53.028 14.5522 4.078184 31.733288 -2.871232
2007-05-22 07:48:53 51°13.96 2°53.002 14.5544 4.078184 31.733288 -2.871232
2007-05-22 07:48:58 51°13.95 2°52.976 14.5501 4.078702 31.743481 -2.871232
2007-05-22 07:49:03 51°13.939 2°52.951 14.541 4.08088 31.773782 -2.871232
2007-05-22 07:49:08 51°13.929 2°52.925 14.5657 4.07974 31.768867 -2.871232
2007-05-22 07:49:13 51°13.92 2°52.899 14.55 4.077873 31.757647 -2.871232
2007-05-22 07:49:18 51°13.909 2°52.874 14.5407 4.08088 31.793755 -2.871232
2007-05-22 07:49:23 51°13.899 2°52.848 14.5556 4.08088 31.793755 -2.871232
2007-05-22 07:49:28 51°13.889 2°52.822 14.5482 4.080362 31.802815 -2.871232
2007-05-22 07:49:33 51°13.879 2°52.797 14.5352 4.080362 31.81139 -2.871232
2007-05-22 07:49:38 51°13.869 2°52.771 14.5372 4.081918 31.829204 -2.871232
2007-05-22 07:49:43 51°13.859 2°52.745 14.5482 4.080985 31.820374 -2.871232
2007-05-22 07:49:48 51°13.848 2°52.72 14.5365 4.082333 31.836388 -2.871232
2007-05-22 07:49:53 51°13.838 2°52.694 14.5469 4.082333 31.836388 -2.871232
2007-05-22 07:49:58 51°13.828 2°52.669 14.559 4.084407 31.857291 -2.871232
2007-05-22 07:50:03 51°13.818 2°52.644 14.5565 4.084407 31.859439 -2.871232
2007-05-22 07:50:08 51°13.807 2°52.619 14.5496 4.084718 31.867159 -2.871232
2007-05-22 07:50:13 51°13.797 2°52.593 14.5556 4.087103 31.890063 -2.871232
2007-05-22 07:50:18 51°13.786 2°52.568 14.551 4.086481 31.885366 -2.871232
2007-05-22 07:50:23 51°13.776 2°52.542 14.56 4.086481 31.885366 -2.871232
2007-05-22 07:50:28 51°13.766 2°52.517 14.5681 4.086585 31.887702 -2.871232
2007-05-22 07:50:33 51°13.755 2°52.491 14.5621 4.086481 31.883932 -2.871232
2007-05-22 07:50:38 51°13.746 2°52.466 14.5659 4.087207 31.887381 -2.871232
2007-05-22 07:50:43 51°13.735 2°52.441 14.5681 4.08814 31.895502 -2.871232
2007-05-22 07:50:48 51°13.725 2°52.415 14.569 4.088659 31.900731 -2.871232
2007-05-22 07:50:53 51°13.715 2°52.389 14.5759 4.088659 31.900731 -2.871232
2007-05-22 07:50:58 51°13.705 2°52.363 14.5766 4.087829 31.892078 -2.871232
2007-05-22 07:51:03 51°13.695 2°52.338 14.5744 4.086066 31.873157 -2.871232
2007-05-22 07:51:08 51°13.685 2°52.312 14.5718 4.088555 31.892659 -2.871232
2007-05-22 07:51:13 51°13.674 2°52.287 14.5794 4.085236 31.863791 -2.871232
2007-05-22 07:51:18 51°13.665 2°52.261 14.5772 4.089177 31.896638 -2.871232
2007-05-22 07:51:23 51°13.654 2°52.235 14.578 4.089177 31.896638 -2.871232
2007-05-22 07:51:28 51°13.644 2°52.209 14.5758 4.087725 31.881142 -2.871232
2007-05-22 07:51:33 51°13.634 2°52.184 14.5842 4.084925 31.854641 -2.871232
2007-05-22 07:51:38 51°13.625 2°52.158 14.5728 4.086273 31.866366 -2.871232
2007-05-22 07:51:43 51°13.614 2°52.133 14.5771 4.089695 31.895414 -2.871232
2007-05-22 07:51:48 51°13.605 2°52.107 14.5707 4.089695 31.893981 -2.871232
2007-05-22 07:51:53 51°13.595 2°52.081 14.5757 4.089695 31.893981 -2.871232
2007-05-22 07:51:58 51°13.585 2°52.055 14.5708 4.089799 31.894883 -2.871232
2007-05-22 07:52:03 51°13.575 2°52.029 14.5707 4.088969 31.887667 -2.871232
2007-05-22 07:52:08 51°13.565 2°52.004 14.5634 4.085755 31.858993 -2.871232
2007-05-22 07:52:13 51°13.555 2°51.978 14.5714 4.090214 31.899924 -2.871232
2007-05-22 07:52:18 51°13.544 2°51.953 14.5717 4.091562 31.912368 -2.871232
2007-05-22 07:52:23 51°13.534 2°51.927 14.5808 4.091562 31.912368 -2.871232
2007-05-22 07:52:28 51°13.524 2°51.901 14.5803 4.091147 31.90876 -2.871232
2007-05-22 07:52:33 51°13.514 2°51.876 14.5741 4.091147 31.910194 -2.871232
2007-05-22 07:52:38 51°13.504 2°51.851 14.5812 4.090421 31.907464 -2.871232
2007-05-22 07:52:43 51°13.494 2°51.825 14.5765 4.090214 31.907094 -2.871232
2007-05-22 07:52:48 51°13.483 2°51.799 14.5702 4.09011 31.905475 -2.871232
2007-05-22 07:52:53 51°13.474 2°51.773 14.5686 4.09011 31.905475 -2.871232
2007-05-22 07:52:58 51°13.463 2°51.748 14.5771 4.044069 31.503154 -2.871232
2007-05-22 07:53:03 51°13.454 2°51.722 14.5724 3.956667 30.743438 -2.871232
2007-05-22 07:53:08 51°13.443 2°51.697 14.5759 4.089695 31.897565 -2.871232
2007-05-22 07:53:13 51°13.433 2°51.671 14.5726 4.090732 31.906586 -2.871232
2007-05-22 07:53:18 51°13.423 2°51.645 14.5826 4.091355 31.913433 -2.871232
2007-05-22 07:53:23 51°13.413 2°51.62 14.5741 4.091355 31.913433 -2.871232
2007-05-22 07:53:28 51°13.402 2°51.594 14.577 4.091666 31.918291 -2.871232
2007-05-22 07:53:33 51°13.393 2°51.568 14.5839 4.091458 31.916487 -2.871232
2007-05-22 07:53:38 51°13.382 2°51.543 14.5776 4.091355 31.915584 -2.871232
2007-05-22 07:53:43 51°13.372 2°51.517 14.5713 4.091355 31.915584 -2.871232
2007-05-22 07:53:48 51°13.362 2°51.491 14.5674 4.09094 31.911258 -2.871232
2007-05-22 07:53:53 51°13.352 2°51.465 14.5624 4.09094 31.911258 -2.871232
2007-05-22 07:53:58 51°13.341 2°51.44 14.553 4.091355 31.91415 -2.871232
2007-05-22 07:54:03 51°13.332 2°51.413 14.561 4.091458 31.913618 -2.871232
2007-05-22 07:54:08 51°13.321 2°51.388 14.549 4.091769 31.914173 -2.871232
2007-05-22 07:54:13 51°13.312 2°51.361 14.5484 4.092599 31.922824 -2.871232
2007-05-22 07:54:18 51°13.302 2°51.336 14.5378 4.093532 31.93525 -2.871232
2007-05-22 07:54:23 51°13.292 2°51.31 14.5347 4.093532 31.93525 -2.871232
2007-05-22 07:54:28 51°13.282 2°51.284 14.5241 4.094466 31.94768 -2.871232
2007-05-22 07:54:33 51°13.272 2°51.258 14.5241 4.095192 31.958308 -2.871232
2007-05-22 07:54:38 51°13.262 2°51.232 14.5295 4.067815 31.722282 -2.871232
2007-05-22 07:54:43 51°13.252 2°51.206 14.5115 4.037226 31.4607 -2.871232
2007-05-22 07:54:48 51°13.241 2°51.181 14.511 4.098303 31.99762 -2.871232
2007-05-22 07:54:53 51°13.231 2°51.155 14.5157 4.098303 31.99762 -2.871232
2007-05-22 07:54:58 51°13.221 2°51.13 14.5055 4.099237 32.012228 -2.871232
2007-05-22 07:55:03 51°13.211 2°51.104 14.5026 4.100066 32.025219 -2.871232
2007-05-22 07:55:08 51°13.2 2°51.078 14.4916 4.100066 32.028102 -2.871232
2007-05-22 07:55:13 51°13.191 2°51.052 14.4867 4.100585 32.036225 -2.871232
2007-05-22 07:55:18 51°13.18 2°51.027 14.4902 4.101518 32.05013 -2.871232
2007-05-22 07:55:23 51°13.17 2°51.001 14.4684 4.101518 32.05013 -2.871232
2007-05-22 07:55:28 51°13.16 2°50.975 14.4738 4.101207 32.051026 -2.871232
2007-05-22 07:55:33 51°13.15 2°50.949 14.449 4.10183 32.059337 -2.871232
2007-05-22 07:55:38 51°13.14 2°50.924 14.4546 4.102452 32.070539 -2.871232
2007-05-22 07:55:43 51°13.13 2°50.898 14.4521 4.103178 32.08265 -2.871232
2007-05-22 07:55:48 51°13.12 2°50.872 14.4388 4.103385 32.090242 -2.871232
2007-05-22 07:55:53 51°13.11 2°50.846 14.4417 4.103385 32.090242 -2.871232
2007-05-22 07:55:58 51°13.099 2°50.821 14.4393 4.104008 32.10218 -2.871232
2007-05-22 07:56:03 51°13.089 2°50.795 14.4468 4.104112 32.112493 -2.871232
2007-05-22 07:56:08 51°13.079 2°50.769 14.4587 4.10463 32.125709 -2.871232
2007-05-22 07:56:13 51°13.069 2°50.744 14.4634 4.104008 32.124623 -2.871232
2007-05-22 07:56:18 51°13.059 2°50.718 14.4726 4.104216 32.132956 -2.871232
2007-05-22 07:56:23 51°13.049 2°50.692 14.4797 4.104216 32.132956 -2.871232
2007-05-22 07:56:28 51°13.039 2°50.666 14.4884 4.104319 32.138937 -2.871232
2007-05-22 07:56:33 51°13.029 2°50.64 14.4979 4.104423 32.142019 -2.871232
2007-05-22 07:56:38 51°13.019 2°50.614 14.4996 4.104319 32.140387 -2.871232
2007-05-22 07:56:43 51°13.009 2°50.589 14.5062 4.104216 32.133681 -2.871232
2007-05-22 07:56:48 51°12.999 2°50.563 14.5156 4.104423 32.129695 -2.871232
2007-05-22 07:56:53 51°12.989 2°50.537 14.5222 4.104423 32.129695 -2.871232
2007-05-22 07:56:58 51°12.978 2°50.511 14.5214 4.104423 32.12245 -2.871232
2007-05-22 07:57:03 51°12.969 2°50.484 14.5274 4.10463 32.116295 -2.871232
2007-05-22 07:57:08 51°12.958 2°50.459 14.5326 4.104526 32.108152 -2.871232
2007-05-22 07:57:13 51°12.948 2°50.433 14.5343 4.104941 32.105984 -2.871232
2007-05-22 07:57:18 51°12.938 2°50.407 14.5377 4.10463 32.096037 -2.871232
2007-05-22 07:57:23 51°12.928 2°50.381 14.5369 4.10463 32.096037 -2.871232
2007-05-22 07:57:28 51°12.917 2°50.355 14.5401 4.104837 32.092063 -2.871232
2007-05-22 07:57:33 51°12.907 2°50.329 14.5372 4.105252 32.092067 -2.871232
2007-05-22 07:57:38 51°12.897 2°50.303 14.5429 4.105044 32.085201 -2.871232
2007-05-22 07:57:43 51°12.887 2°50.277 14.5393 4.105252 32.082675 -2.871232
2007-05-22 07:57:48 51°12.877 2°50.251 14.5451 4.105355 32.08069 -2.871232
2007-05-22 07:57:53 51°12.866 2°50.225 14.5456 4.105355 32.08069 -2.871232
2007-05-22 07:57:58 51°12.856 2°50.199 14.5384 4.105459 32.078706 -2.871232
2007-05-22 07:58:03 51°12.846 2°50.173 14.5421 4.105666 32.078348 -2.871232
2007-05-22 07:58:08 51°12.836 2°50.147 14.5461 4.105874 32.078712 -2.871232
2007-05-22 07:58:13 51°12.826 2°50.121 14.5448 4.105874 32.07799 -2.871232
2007-05-22 07:58:18 51°12.816 2°50.095 14.5385 4.105874 32.076546 -2.871232
2007-05-22 07:58:23 51°12.806 2°50.069 14.5387 4.105874 32.076546 -2.871232
2007-05-22 07:58:28 51°12.795 2°50.042 14.5357 4.105874 32.075824 -2.871232
2007-05-22 07:58:33 51°12.786 2°50.016 14.5372 4.106392 32.081065 -2.871232
2007-05-22 07:58:38 51°12.775 2°49.99 14.5344 4.106392 32.080343 -2.871232
2007-05-22 07:58:43 51°12.766 2°49.963 14.5414 4.106185 32.077814 -2.871232
2007-05-22 07:58:48 51°12.755 2°49.937 14.5322 4.106703 32.083055 -2.871232
2007-05-22 07:58:53 51°12.746 2°49.911 14.5308 4.106703 32.083055 -2.871232
2007-05-22 07:58:58 51°12.735 2°49.886 14.5295 4.107222 32.089018 -2.871232
2007-05-22 07:59:03 51°12.725 2°49.859 14.54 4.107533 32.093174 -2.871232
2007-05-22 07:59:08 51°12.714 2°49.833 14.5331 4.107741 32.095704 -2.871232
2007-05-22 07:59:13 51°12.704 2°49.807 14.5392 4.107741 32.095704 -2.871232
2007-05-22 07:59:18 51°12.694 2°49.781 14.5353 4.107844 32.09733 -2.871232
2007-05-22 07:59:23 51°12.684 2°49.755 14.5438 4.107844 32.09733 -2.871232
2007-05-22 07:59:28 51°12.674 2°49.729 14.5442 4.108259 32.103114 -2.871232
2007-05-22 07:59:33 51°12.663 2°49.703 14.5405 4.108259 32.103836 -2.871232
2007-05-22 07:59:38 51°12.654 2°49.676 14.5446 4.108052 32.101306 -2.871232
2007-05-22 07:59:43 51°12.643 2°49.65 14.5418 4.108259 32.102391 -2.871232
2007-05-22 07:59:48 51°12.634 2°49.623 14.5484 4.10857 32.104381 -2.871232
2007-05-22 07:59:53 51°12.623 2°49.598 14.5406 4.10857 32.104381 -2.871232
2007-05-22 07:59:58 51°12.614 2°49.571 14.544 4.108674 32.104562 -2.871232
2007-05-22 08:00:03 51°12.603 2°49.545 14.5408 4.108778 32.102576 -2.871232
2007-05-22 08:00:08 51°12.594 2°49.519 14.5452 4.109192 32.105469 -2.871232
2007-05-22 08:00:13 51°12.582 2°49.494 14.5383 4.1094 32.106555 -2.871232
2007-05-22 08:00:18 51°12.573 2°49.467 14.5406 4.109503 32.106736 -2.871232
2007-05-22 08:00:23 51°12.562 2°49.442 14.5416 4.109503 32.106736 -2.871232
2007-05-22 08:00:28 51°12.552 2°49.416 14.537 4.109711 32.108544 -2.871232
2007-05-22 08:00:33 51°12.541 2°49.39 14.5395 4.109711 32.109266 -2.871232
2007-05-22 08:00:38 51°12.531 2°49.364 14.54 4.110126 32.113605 -2.871232
2007-05-22 08:00:43 51°12.521 2°49.338 14.5442 4.110333 32.115413 -2.871232
2007-05-22 08:00:48 51°12.511 2°49.312 14.5411 4.110748 32.120474 -2.871232
2007-05-22 08:00:53 51°12.501 2°49.286 14.543 4.110748 32.120474 -2.871232
2007-05-22 08:00:58 51°12.491 2°49.26 14.5397 4.111059 32.123186 -2.871232
2007-05-22 08:01:03 51°12.481 2°49.233 14.5402 4.111474 32.126802 -2.871232
2007-05-22 08:01:08 51°12.471 2°49.207 14.5372 4.111992 32.132046 -2.871232
2007-05-22 08:01:13 51°12.46 2°49.182 14.5418 4.112304 32.134035 -2.871232
2007-05-22 08:01:18 51°12.451 2°49.155 14.5367 4.112615 32.136024 -2.871232
2007-05-22 08:01:23 51°12.44 2°49.13 14.5309 4.112615 32.136024 -2.871232
2007-05-22 08:01:28 51°12.43 2°49.103 14.5362 4.112926 32.138736 -2.871232
2007-05-22 08:01:33 51°12.419 2°49.078 14.5308 4.113341 32.143076 -2.871232
2007-05-22 08:01:38 51°12.41 2°49.051 14.5359 4.113652 32.146512 -2.871232
2007-05-22 08:01:43 51°12.399 2°49.025 14.5306 4.113548 32.145608 -2.871232
2007-05-22 08:01:48 51°12.389 2°48.998 14.5337 4.113859 32.149044 -2.871232
2007-05-22 08:01:53 51°12.379 2°48.972 14.5265 4.113859 32.149044 -2.871232
2007-05-22 08:01:58 51°12.369 2°48.945 14.5276 4.114585 32.157544 -2.871232
2007-05-22 08:02:03 51°12.359 2°48.918 14.5266 4.114481 32.157364 -2.871232
2007-05-22 08:02:08 51°12.349 2°48.893 14.5265 4.114585 32.158992 -2.871232
2007-05-22 08:02:13 51°12.339 2°48.866 14.5272 4.114896 32.162429 -2.871232
2007-05-22 08:02:18 51°12.328 2°48.842 14.524 4.115104 32.165686 -2.871232
2007-05-22 08:02:23 51°12.319 2°48.817 14.5283 4.115104 32.165686 -2.871232
2007-05-22 08:02:28 51°12.309 2°48.794 14.5215 4.115207 32.168038 -2.871232
2007-05-22 08:02:33 51°12.3 2°48.77 14.5249 4.115415 32.171296 -2.871232
2007-05-22 08:02:38 51°12.29 2°48.748 14.5317 4.115311 32.170391 -2.871232
2007-05-22 08:02:43 51°12.283 2°48.724 14.5273 4.115415 32.172744 -2.871232
2007-05-22 08:02:48 51°12.277 2°48.699 14.5259 4.115415 32.173469 -2.871232
2007-05-22 08:02:53 51°12.271 2°48.676 14.5195 4.115415 32.173469 -2.871232
2007-05-22 08:02:58 51°12.264 2°48.653 14.518 4.115519 32.174373 -2.871232
2007-05-22 08:03:03 51°12.256 2°48.633 14.5144 4.11583 32.177811 -2.871232
2007-05-22 08:03:08 51°12.247 2°48.616 14.5043 4.115726 32.176907 -2.871232
2007-05-22 08:03:13 51°12.237 2°48.603 14.5031 4.115519 32.172924 -2.871232
2007-05-22 08:03:18 51°12.227 2°48.593 14.5014 4.115622 32.174553 -2.871232
2007-05-22 08:03:23 51°12.216 2°48.586 14.5011 4.115622 32.174553 -2.871232
2007-05-22 08:03:28 51°12.206 2°48.582 14.5034 4.115934 32.18089 -2.871232
2007-05-22 08:03:33 51°12.196 2°48.58 14.5074 4.115519 32.180894 -2.871232
2007-05-22 08:03:38 51°12.187 2°48.581 14.5058 4.115104 32.181624 -2.871232
2007-05-22 08:03:43 51°12.178 2°48.583 14.5085 4.115519 32.189593 -2.871232
2007-05-22 08:03:48 51°12.17 2°48.588 14.5093 4.115623 32.19485 -2.871232
2007-05-22 08:03:53 51°12.162 2°48.595 14.5063 4.115623 32.19485 -2.871232
2007-05-22 08:03:58 51°12.156 2°48.602 14.5074 4.115623 32.1963 -2.871232
2007-05-22 08:04:03 51°12.151 2°48.611 14.5025 4.115934 32.199741 -2.871232
2007-05-22 08:04:08 51°12.147 2°48.621 14.4991 4.116556 32.205173 -2.871232
2007-05-22 08:04:13 51°12.144 2°48.632 14.4992 4.117075 32.208973 -2.871232
2007-05-22 08:04:18 51°12.142 2°48.642 14.4987 4.117489 32.211868 -2.871232
2007-05-22 08:04:23 51°12.142 2°48.654 14.4936 4.117489 32.211868 -2.871232
2007-05-22 08:04:28 51°12.143 2°48.664 14.4937 4.117904 32.215489 -2.871232
2007-05-22 08:04:33 51°12.145 2°48.675 14.4962 4.118112 32.218751 -2.871232
2007-05-22 08:04:38 51°12.148 2°48.684 14.4921 4.118215 32.221109 -2.871232
2007-05-22 08:04:43 51°12.152 2°48.692 14.4944 4.118319 32.224192 -2.871232
2007-05-22 08:04:48 51°12.157 2°48.701 14.4922 4.118216 32.225465 -2.871232
2007-05-22 08:04:53 51°12.163 2°48.709 14.4942 4.118216 32.225465 -2.871232
2007-05-22 08:04:58 51°12.171 2°48.718 14.4946 4.118112 32.226013 -2.871232
2007-05-22 08:05:03 51°12.179 2°48.728 14.4955 4.118008 32.22656 -2.871232
2007-05-22 08:05:08 51°12.189 2°48.739 14.5026 4.117904 32.22638 -2.871232
2007-05-22 08:05:13 51°12.199 2°48.751 14.5081 4.117697 32.225296 -2.871232
2007-05-22 08:05:18 51°12.21 2°48.764 14.5115 4.117593 32.225117 -2.871232
2007-05-22 08:05:23 51°12.22 2°48.777 14.52 4.117593 32.225117 -2.871232
2007-05-22 08:05:28 51°12.231 2°48.792 14.5343 4.117386 32.223305 -2.871232
2007-05-22 08:05:33 51°12.243 2°48.806 14.535 4.117075 32.219863 -2.871232
2007-05-22 08:05:38 51°12.254 2°48.822 14.5361 4.11666 32.214062 -2.871232
2007-05-22 08:05:43 51°12.265 2°48.837 14.5378 4.116141 32.206632 -2.871232
2007-05-22 08:05:48 51°12.277 2°48.853 14.5354 4.115623 32.197026 -2.871232
2007-05-22 08:05:53 51°12.289 2°48.87 14.537 4.115623 32.197026 -2.871232
2007-05-22 08:05:58 51°12.3 2°48.887 14.5334 4.114897 32.185613 -2.871232
2007-05-22 08:06:03 51°12.312 2°48.904 14.5316 4.114067 32.171126 -2.871232
2007-05-22 08:06:08 51°12.324 2°48.921 14.53 4.113445 32.158455 -2.871232
2007-05-22 08:06:13 51°12.336 2°48.94 14.5418 4.113133 32.152122 -2.871232
2007-05-22 08:06:18 51°12.347 2°48.959 14.5353 4.113133 32.150674 -2.871232
2007-05-22 08:06:23 51°12.359 2°48.978 14.5293 4.113133 32.150674 -2.871232
2007-05-22 08:06:28 51°12.37 2°48.998 14.5309 4.113237 32.150855 -2.871232
2007-05-22 08:06:33 51°12.381 2°49.017 14.5334 4.113652 32.154472 -2.871232
2007-05-22 08:06:38 51°12.392 2°49.037 14.524 4.114274 32.160622 -2.871232
2007-05-22 08:06:43 51°12.403 2°49.057 14.5274 4.114378 32.160079 -2.871232
2007-05-22 08:06:48 51°12.414 2°49.077 14.5303 4.114585 32.161164 -2.871232
2007-05-22 08:06:53 51°12.425 2°49.098 14.5282 4.114585 32.161164 -2.871232
2007-05-22 08:06:58 51°12.436 2°49.118 14.5257 4.115104 32.167134 -2.871232
2007-05-22 08:07:03 51°12.448 2°49.138 14.5249 4.115311 32.169667 -2.871232
2007-05-22 08:07:08 51°12.459 2°49.157 14.5261 4.115519 32.1722 -2.871232
2007-05-22 08:07:13 51°12.47 2°49.178 14.5273 4.11583 32.177811 -2.871232
2007-05-22 08:07:18 51°12.481 2°49.197 14.5258 4.11583 32.178536 -2.871232
2007-05-22 08:07:23 51°12.493 2°49.218 14.5297 4.11583 32.178536 -2.871232
2007-05-22 08:07:28 51°12.504 2°49.237 14.5322 4.115726 32.177631 -2.871232
2007-05-22 08:07:33 51°12.516 2°49.257 14.5323 4.115726 32.178356 -2.871232
2007-05-22 08:07:38 51°12.527 2°49.277 14.5286 4.115415 32.176366 -2.871232
2007-05-22 08:07:43 51°12.539 2°49.297 14.5239 4.115208 32.174557 -2.871232
2007-05-22 08:07:48 51°12.55 2°49.317 14.5125 4.115208 32.174557 -2.871232
2007-05-22 08:07:53 51°12.562 2°49.337 14.5042 4.115208 32.174557 -2.871232
2007-05-22 08:07:58 51°12.573 2°49.357 14.4967 4.115104 32.172928 -2.871232
2007-05-22 08:08:03 51°12.584 2°49.377 14.4957 4.115 32.171299 -2.871232
2007-05-22 08:08:08 51°12.596 2°49.397 14.4945 4.114896 32.16967 -2.871232
2007-05-22 08:08:13 51°12.607 2°49.417 14.4983 4.092185 31.973108 -2.871232
2007-05-22 08:08:18 51°12.618 2°49.438 14.5071 4.101207 32.055356 -2.871232
2007-05-22 08:08:23 51°12.63 2°49.458 14.5119 4.101207 32.055356 -2.871232
2007-05-22 08:08:28 51°12.641 2°49.478 14.5158 4.115208 32.183253 -2.871232
2007-05-22 08:08:33 51°12.653 2°49.497 14.5184 4.115312 32.191409 -2.871232
2007-05-22 08:08:38 51°12.664 2°49.518 14.5198 4.114897 32.192866 -2.871232
2007-05-22 08:08:43 51°12.675 2°49.538 14.5225 4.114689 32.193232 -2.871232
2007-05-22 08:08:48 51°12.686 2°49.558 14.5322 4.114067 32.185624 -2.871232
2007-05-22 08:08:53 51°12.697 2°49.578 14.5341 4.114067 32.185624 -2.871232
2007-05-22 08:08:58 51°12.709 2°49.599 14.5265 4.113756 32.180008 -2.871232
2007-05-22 08:09:03 51°12.72 2°49.619 14.5297 4.113549 32.173124 -2.871232
2007-05-22 08:09:08 51°12.731 2°49.639 14.5337 4.113445 32.16932 -2.871232
2007-05-22 08:09:13 51°12.743 2°49.659 14.5319 4.113237 32.164613 -2.871232
2007-05-22 08:09:18 51°12.753 2°49.679 14.5353 4.112926 32.159001 -2.871232
2007-05-22 08:09:23 51°12.764 2°49.7 14.5307 4.112926 32.159001 -2.871232
2007-05-22 08:09:28 51°12.775 2°49.72 14.5314 4.112304 32.149953 -2.871232
2007-05-22 08:09:33 51°12.786 2°49.74 14.5309 4.1122 32.148325 -2.871232
2007-05-22 08:09:38 51°12.798 2°49.76 14.5304 4.111785 32.143259 -2.871232
2007-05-22 08:09:43 51°12.809 2°49.781 14.5311 4.111474 32.138375 -2.871232
2007-05-22 08:09:48 51°12.82 2°49.801 14.5291 4.111267 32.135843 -2.871232
2007-05-22 08:09:53 51°12.832 2°49.821 14.5314 4.111267 32.135843 -2.871232
2007-05-22 08:09:58 51°12.843 2°49.841 14.5305 4.111267 32.135843 -2.871232
2007-05-22 08:10:03 51°12.854 2°49.862 14.5296 4.111059 32.134758 -2.871232
2007-05-22 08:10:08 51°12.865 2°49.882 14.528 4.110852 32.132949 -2.871232
2007-05-22 08:10:13 51°12.876 2°49.903 14.5258 4.110644 32.13114 -2.871232
2007-05-22 08:10:18 51°12.887 2°49.924 14.5285 4.110541 32.130959 -2.871232
2007-05-22 08:10:23 51°12.897 2°49.945 14.5292 4.110541 32.130959 -2.871232
2007-05-22 08:10:28 51°12.908 2°49.966 14.5284 4.110333 32.129874 -2.871232
2007-05-22 08:10:33 51°12.919 2°49.988 14.5227 4.110126 32.127342 -2.871232
2007-05-22 08:10:38 51°12.929 2°50.009 14.5264 4.109919 32.125533 -2.871232
2007-05-22 08:10:43 51°12.94 2°50.03 14.5255 4.110022 32.127884 -2.871232
2007-05-22 08:10:48 51°12.951 2°50.051 14.5213 4.109919 32.12698 -2.871232
2007-05-22 08:10:53 51°12.962 2°50.072 14.5193 4.109919 32.12698 -2.871232
2007-05-22 08:10:58 51°12.973 2°50.093 14.5194 4.109607 32.124267 -2.871232
2007-05-22 08:11:03 51°12.984 2°50.113 14.5159 4.109607 32.124267 -2.871232
2007-05-22 08:11:08 51°12.995 2°50.134 14.5114 4.109607 32.126437 -2.871232
2007-05-22 08:11:13 51°13.006 2°50.155 14.5066 4.109504 32.125532 -2.871232
2007-05-22 08:11:18 51°13.017 2°50.176 14.5131 4.109504 32.126256 -2.871232
2007-05-22 08:11:23 51°13.028 2°50.197 14.5072 4.109504 32.126256 -2.871232
2007-05-22 08:11:28 51°13.038 2°50.218 14.502 4.109919 32.132044 -2.871232
2007-05-22 08:11:33 51°13.049 2°50.239 14.5048 4.109919 32.133491 -2.871232
2007-05-22 08:11:38 51°13.06 2°50.26 14.4953 4.110541 32.141814 -2.871232
2007-05-22 08:11:43 51°13.071 2°50.281 14.4964 4.110956 32.148329 -2.871232
2007-05-22 08:11:48 51°13.081 2°50.302 14.4875 4.11106 32.151407 -2.871232
2007-05-22 08:11:53 51°13.092 2°50.323 14.4847 4.11106 32.151407 -2.871232
2007-05-22 08:11:58 51°13.103 2°50.344 14.4836 4.111371 32.154846 -2.871232
2007-05-22 08:12:03 51°13.113 2°50.365 14.479 4.111889 32.162268 -2.871232
2007-05-22 08:12:08 51°13.124 2°50.387 14.475 4.1122 32.167882 -2.871232
2007-05-22 08:12:13 51°13.133 2°50.409 14.4714 4.112408 32.172592 -2.871232
2007-05-22 08:12:18 51°13.143 2°50.431 14.4577 4.112512 32.176397 -2.871232
2007-05-22 08:12:23 51°13.151 2°50.454 14.4532 4.112512 32.176397 -2.871232
2007-05-22 08:12:28 51°13.16 2°50.478 14.4349 4.112512 32.181474 -2.871232
2007-05-22 08:12:33 51°13.167 2°50.502 14.4224 4.112201 32.181659 -2.871232
2007-05-22 08:12:38 51°13.175 2°50.526 14.4122 4.111993 32.18275 -2.871232
2007-05-22 08:12:43 51°13.182 2°50.55 14.4079 4.111786 32.184567 -2.871232
2007-05-22 08:12:48 51°13.19 2°50.574 14.395 4.111371 32.186025 -2.871232
2007-05-22 08:12:53 51°13.197 2°50.598 14.3885 4.111371 32.186025 -2.871232
2007-05-22 08:12:58 51°13.204 2°50.622 14.3775 4.110542 32.186037 -2.871232
2007-05-22 08:13:03 51°13.213 2°50.645 14.365 4.109297 32.186056 -2.871232
2007-05-22 08:13:08 51°13.221 2°50.669 14.3663 4.107846 32.183537 -2.871232
2007-05-22 08:13:13 51°13.229 2°50.692 14.3635 4.105979 32.178117 -2.871232
2007-05-22 08:13:18 51°13.237 2°50.715 14.3657 4.104424 32.176142 -2.871232
2007-05-22 08:13:23 51°13.245 2°50.739 14.3593 4.104424 32.176142 -2.871232
2007-05-22 08:13:28 51°13.254 2°50.762 14.3592 4.102868 32.171259 -2.871232
2007-05-22 08:13:33 51°13.262 2°50.785 14.3557 4.101624 32.170551 -2.871232
2007-05-22 08:13:38 51°13.27 2°50.809 14.362 4.100587 32.169476 -2.871232
2007-05-22 08:13:43 51°13.278 2°50.832 14.3562 4.09955 32.166218 -2.871232
2007-05-22 08:13:48 51°13.286 2°50.856 14.3555 4.098928 32.164409 -2.871232
2007-05-22 08:13:53 51°13.294 2°50.879 14.353 4.098928 32.164409 -2.871232
2007-05-22 08:13:58 51°13.303 2°50.902 14.3493 4.09841 32.162052 -2.871232
2007-05-22 08:14:03 51°13.311 2°50.926 14.3531 4.097891 32.16115 -2.871232
2007-05-22 08:14:08 51°13.319 2°50.949 14.3497 4.097373 32.158793 -2.871232
2007-05-22 08:14:13 51°13.327 2°50.972 14.3534 4.096958 32.155161 -2.871232
2007-05-22 08:14:18 51°13.336 2°50.995 14.3508 4.096647 32.15462 -2.871232
2007-05-22 08:14:23 51°13.344 2°51.019 14.3564 4.096647 32.15462 -2.871232
2007-05-22 08:14:28 51°13.353 2°51.041 14.3484 4.096336 32.154078 -2.871232
2007-05-22 08:14:33 51°13.362 2°51.064 14.3444 4.096128 32.154445 -2.871232
2007-05-22 08:14:38 51°13.372 2°51.086 14.3492 4.095921 32.153356 -2.871232
2007-05-22 08:14:43 51°13.381 2°51.109 14.3477 4.095921 32.154811 -2.871232
2007-05-22 08:14:48 51°13.391 2°51.13 14.3505 4.095714 32.152995 -2.871232
2007-05-22 08:14:53 51°13.4 2°51.153 14.3531 4.095714 32.152995 -2.871232
2007-05-22 08:14:58 51°13.41 2°51.175 14.3563 4.095402 32.150271 -2.871232
2007-05-22 08:15:03 51°13.419 2°51.197 14.3624 4.095299 32.150818 -2.871232
2007-05-22 08:15:08 51°13.429 2°51.219 14.3708 4.094884 32.14864 -2.871232
2007-05-22 08:15:13 51°13.438 2°51.242 14.3822 4.094573 32.146643 -2.871232
2007-05-22 08:15:18 51°13.448 2°51.264 14.3892 4.094262 32.143191 -2.871232
2007-05-22 08:15:23 51°13.457 2°51.286 14.4002 4.094262 32.143191 -2.871232
2007-05-22 08:15:28 51°13.466 2°51.309 14.4092 4.094054 32.13992 -2.871232
2007-05-22 08:15:33 51°13.476 2°51.331 14.4167 4.094054 32.138465 -2.871232
2007-05-22 08:15:38 51°13.485 2°51.354 14.4278 4.09395 32.133194 -2.871232
2007-05-22 08:15:43 51°13.495 2°51.376 14.4396 4.094158 32.129194 -2.871232
2007-05-22 08:15:48 51°13.504 2°51.399 14.4514 4.094572 32.124832 -2.871232
2007-05-22 08:15:53 51°13.514 2°51.421 14.4669 4.094572 32.124832 -2.871232
2007-05-22 08:15:58 51°13.522 2°51.444 14.473 4.095195 32.122287 -2.871232
2007-05-22 08:16:03 51°13.531 2°51.467 14.4808 4.095609 32.117203 -2.871232
2007-05-22 08:16:08 51°13.54 2°51.49 14.4888 4.09592 32.110489 -2.871232
2007-05-22 08:16:13 51°13.549 2°51.513 14.4932 4.096127 32.103598 -2.871232
2007-05-22 08:16:18 51°13.557 2°51.536 14.4982 4.096024 32.091818 -2.871232
2007-05-22 08:16:23 51°13.566 2°51.56 14.4986 4.096024 32.091818 -2.871232
2007-05-22 08:16:28 51°13.574 2°51.583 14.4928 4.095609 32.07588 -2.871232
2007-05-22 08:16:33 51°13.582 2°51.607 14.4885 4.095505 32.064842 -2.871232
2007-05-22 08:16:38 51°13.591 2°51.63 14.4784 4.095193 32.052724 -2.871232
2007-05-22 08:16:43 51°13.599 2°51.654 14.4749 4.094986 32.042963 -2.871232
2007-05-22 08:16:48 51°13.608 2°51.677 14.468 4.094882 32.034834 -2.871232
2007-05-22 08:16:53 51°13.616 2°51.7 14.4653 4.094882 32.034834 -2.871232
2007-05-22 08:16:58 51°13.625 2°51.723 14.4706 4.094675 32.028692 -2.871232
2007-05-22 08:17:03 51°13.633 2°51.747 14.4832 4.094571 32.027788 -2.871232
2007-05-22 08:17:08 51°13.641 2°51.77 14.49 4.094364 32.028866 -2.871232
2007-05-22 08:17:13 51°13.65 2°51.794 14.5033 4.094052 32.029761 -2.871232
2007-05-22 08:17:18 51°13.658 2°51.817 14.5114 4.093638 32.031919 -2.871232
2007-05-22 08:17:23 51°13.666 2°51.84 14.5167 4.093638 32.031919 -2.871232
2007-05-22 08:17:28 51°13.675 2°51.864 14.5197 4.093223 32.03191 -2.871232
2007-05-22 08:17:33 51°13.683 2°51.887 14.5196 4.092601 32.026479 -2.871232
2007-05-22 08:17:38 51°13.692 2°51.91 14.5218 4.091979 32.015994 -2.871232
2007-05-22 08:17:43 51°13.7 2°51.933 14.5251 4.091356 32.004069 -2.871232
2007-05-22 08:17:48 51°13.708 2°51.957 14.521 4.090838 31.991612 -2.871232
2007-05-22 08:17:53 51°13.716 2°51.98 14.5225 4.090838 31.991612 -2.871232
2007-05-22 08:17:58 51°13.724 2°52.004 14.5162 4.09063 31.981875 -2.871232
2007-05-22 08:18:03 51°13.733 2°52.027 14.5083 4.090526 31.975207 -2.871232
2007-05-22 08:18:08 51°13.741 2°52.05 14.5005 4.090422 31.970702 -2.871232
2007-05-22 08:18:13 51°13.749 2°52.074 14.4964 4.090319 31.966918 -2.871232
2007-05-22 08:18:18 51°13.757 2°52.097 14.4953 4.09063 31.96819 -2.871232
2007-05-22 08:18:23 51°13.766 2°52.121 14.4907 4.09063 31.96819 -2.871232
2007-05-22 08:18:28 51°13.774 2°52.144 14.475 4.090733 31.969094 -2.871232
2007-05-22 08:18:33 51°13.782 2°52.167 14.4805 4.090941 31.972341 -2.871232
2007-05-22 08:18:38 51°13.791 2°52.191 14.4712 4.091252 31.979375 -2.871232
2007-05-22 08:18:43 51°13.8 2°52.214 14.4669 4.09146 31.985506 -2.871232
2007-05-22 08:18:48 51°13.808 2°52.237 14.4741 4.091563 31.991455 -2.871232
2007-05-22 08:18:53 51°13.816 2°52.261 14.4772 4.091563 31.991455 -2.871232
2007-05-22 08:18:58 51°13.824 2°52.284 14.4838 4.091356 31.993251 -2.871232
2007-05-22 08:19:03 51°13.833 2°52.307 14.4904 4.09146 32.001367 -2.871232
2007-05-22 08:19:08 51°13.841 2°52.331 14.4922 4.091045 32.003519 -2.871232
2007-05-22 08:19:13 51°13.849 2°52.354 14.4914 4.090941 32.006944 -2.871232
2007-05-22 08:19:18 51°13.858 2°52.377 14.4931 4.09063 32.005672 -2.871232
2007-05-22 08:19:23 51°13.866 2°52.401 14.4932 4.09063 32.005672 -2.871232
2007-05-22 08:19:28 51°13.875 2°52.424 14.4916 4.090319 32.002236 -2.871232
2007-05-22 08:19:33 51°13.883 2°52.448 14.492 4.090112 31.998261 -2.871232
2007-05-22 08:19:38 51°13.891 2°52.471 14.4888 4.089904 31.992124 -2.871232
2007-05-22 08:19:43 51°13.9 2°52.494 14.4924 4.089904 31.98996 -2.871232
2007-05-22 08:19:48 51°13.908 2°52.518 14.4861 4.089801 31.986892 -2.871232
2007-05-22 08:19:53 51°13.917 2°52.541 14.4848 4.089801 31.986892 -2.871232
2007-05-22 08:19:58 51°13.925 2°52.565 14.4831 4.089801 31.98545 -2.871232
2007-05-22 08:20:03 51°13.933 2°52.588 14.4816 4.089801 31.98545 -2.871232
2007-05-22 08:20:08 51°13.941 2°52.611 14.4799 4.089801 31.98545 -2.871232
2007-05-22 08:20:13 51°13.95 2°52.634 14.4775 4.089697 31.984546 -2.871232
2007-05-22 08:20:18 51°13.958 2°52.658 14.4792 4.089593 31.984362 -2.871232
2007-05-22 08:20:23 51°13.966 2°52.681 14.4725 4.089593 31.984362 -2.871232
2007-05-22 08:20:28 51°13.974 2°52.704 14.4723 4.089593 31.985804 -2.871232
2007-05-22 08:20:33 51°13.983 2°52.727 14.4685 4.089593 31.988688 -2.871232
2007-05-22 08:20:38 51°13.991 2°52.75 14.4657 4.08949 31.989226 -2.871232
2007-05-22 08:20:43 51°13.999 2°52.773 14.468 4.089179 31.987954 -2.871232
2007-05-22 08:20:48 51°14.007 2°52.797 14.4622 4.088453 31.983062 -2.871232
2007-05-22 08:20:53 51°14.016 2°52.82 14.4647 4.088453 31.983062 -2.871232
2007-05-22 08:20:58 51°14.024 2°52.843 14.4625 4.087312 31.975273 -2.871232
2007-05-22 08:21:03 51°14.032 2°52.866 14.4684 4.086171 31.966761 -2.871232
2007-05-22 08:21:08 51°14.04 2°52.889 14.4667 4.084616 31.956072 -2.871232
2007-05-22 08:21:13 51°14.048 2°52.913 14.4684 4.08306 31.945381 -2.871232
2007-05-22 08:21:18 51°14.056 2°52.936 14.4693 4.082023 31.937773 -2.871232
2007-05-22 08:21:23 51°14.065 2°52.959 14.4715 4.082023 31.937773 -2.871232
2007-05-22 08:21:28 51°14.073 2°52.982 14.4689 4.081194 31.931974 -2.871232
2007-05-22 08:21:33 51°14.082 2°53.005 14.4684 4.080572 31.927265 -2.871232
2007-05-22 08:21:38 51°14.09 2°53.028 14.4684 4.080261 31.923111 -2.871232
2007-05-22 08:21:43 51°14.099 2°53.051 14.4712 4.080053 31.920581 -2.871232
2007-05-22 08:21:48 51°14.107 2°53.074 14.475 4.079949 31.918956 -2.871232
2007-05-22 08:21:53 51°14.115 2°53.098 14.4783 4.079949 31.918956 -2.871232
2007-05-22 08:21:58 51°14.124 2°53.121 14.4776 4.079742 31.915707 -2.871232
2007-05-22 08:22:03 51°14.133 2°53.144 14.4819 4.079638 31.914802 -2.871232
2007-05-22 08:22:08 51°14.141 2°53.166 14.4833 4.079742 31.916427 -2.871232
2007-05-22 08:22:13 51°14.149 2°53.19 14.4883 4.079638 31.914802 -2.871232
2007-05-22 08:22:18 51°14.158 2°53.212 14.4962 4.079535 31.912458 -2.871232
2007-05-22 08:22:23 51°14.166 2°53.235 14.5056 4.079535 31.912458 -2.871232
2007-05-22 08:22:28 51°14.174 2°53.258 14.5137 4.079535 31.911019 -2.871232
2007-05-22 08:22:33 51°14.184 2°53.28 14.5241 4.079742 31.91067 -2.871232
2007-05-22 08:22:38 51°14.193 2°53.302 14.5305 4.079742 31.908511 -2.871232
2007-05-22 08:22:43 51°14.203 2°53.323 14.5375 4.079846 31.906538 -2.871232
2007-05-22 08:22:48 51°14.213 2°53.344 14.5424 4.079742 31.901319 -2.871232
2007-05-22 08:22:53 51°14.223 2°53.364 14.5467 4.079742 31.901319 -2.871232
2007-05-22 08:22:58 51°14.234 2°53.384 14.5478 4.078082 31.880383 -2.871232
2007-05-22 08:23:03 51°14.246 2°53.403 14.5502 4.074142 31.839574 -2.871232
2007-05-22 08:23:08 51°14.258 2°53.421 14.5482 4.068749 31.783993 -2.871232
2007-05-22 08:23:13 51°14.27 2°53.439 14.5458 4.062009 31.718859 -2.871232
2007-05-22 08:23:18 51°14.283 2°53.455 14.5427 4.054439 31.645838 -2.871232
2007-05-22 08:23:23 51°14.296 2°53.472 14.5419 4.054439 31.645838 -2.871232
2007-05-22 08:23:28 51°14.309 2°53.487 14.5392 4.050292 31.604057 -2.871232
2007-05-22 08:23:33 51°14.323 2°53.501 14.5434 4.045314 31.557214 -2.871232
2007-05-22 08:23:38 51°14.337 2°53.514 14.5447 4.0421 31.527134 -2.871232
2007-05-22 08:23:43 51°14.352 2°53.527 14.5462 4.039611 31.504081 -2.871232
2007-05-22 08:23:48 51°14.367 2°53.539 14.548 4.038056 31.491269 -2.871232
2007-05-22 08:23:53 51°14.382 2°53.551 14.5484 4.038056 31.491269 -2.871232
2007-05-22 08:23:58 51°14.397 2°53.563 14.5514 4.037434 31.487278 -2.871232
2007-05-22 08:24:03 51°14.412 2°53.575 14.5491 4.036397 31.479681 -2.871232
2007-05-22 08:24:08 51°14.427 2°53.586 14.5474 4.035049 31.467255 -2.871232
2007-05-22 08:24:13 51°14.442 2°53.598 14.5443 4.034323 31.460238 -2.871232
2007-05-22 08:24:18 51°14.457 2°53.609 14.5377 4.033701 31.453415 -2.871232
2007-05-22 08:24:23 51°14.473 2°53.621 14.5302 4.033701 31.453415 -2.871232
2007-05-22 08:24:28 51°14.488 2°53.633 14.527 4.032975 31.445692 -2.871232
2007-05-22 08:24:33 51°14.503 2°53.645 14.5197 4.032975 31.444277 -2.871232
2007-05-22 08:24:38 51°14.518 2°53.658 14.5206 4.033597 31.448976 -2.871232
2007-05-22 08:24:43 51°14.532 2°53.67 14.509 4.03536 31.465003 -2.871232
2007-05-22 08:24:48 51°14.547 2°53.682 14.5041 4.03733 31.48496 -2.871232
2007-05-22 08:24:53 51°14.562 2°53.695 14.5013 4.03733 31.48496 -2.871232
2007-05-22 08:24:58 51°14.577 2°53.707 14.4951 4.039819 31.510137 -2.871232
2007-05-22 08:25:03 51°14.592 2°53.72 14.4874 4.041893 31.533136 -2.871232
2007-05-22 08:25:08 51°14.607 2°53.731 14.4879 4.043863 31.554531 -2.871232
2007-05-22 08:25:13 51°14.622 2°53.744 14.4837 4.045315 31.571423 -2.871232
2007-05-22 08:25:18 51°14.637 2°53.756 14.4803 4.046663 31.58884 -2.871232
2007-05-22 08:25:23 51°14.652 2°53.768 14.4743 4.046663 31.58884 -2.871232
2007-05-22 08:25:28 51°14.668 2°53.781 14.4722 4.047803 31.603748 -2.871232
2007-05-22 08:25:33 51°14.683 2°53.793 14.4749 4.049463 31.623887 -2.871232
2007-05-22 08:25:38 51°14.699 2°53.804 14.4769 4.051018 31.642419 -2.871232
2007-05-22 08:25:43 51°14.715 2°53.814 14.4778 4.052159 31.656631 -2.871232
2007-05-22 08:25:48 51°14.731 2°53.823 14.4818 4.053196 31.669231 -2.871232
2007-05-22 08:25:53 51°14.748 2°53.832 14.491 4.053196 31.669231 -2.871232
2007-05-22 08:25:58 51°14.764 2°53.84 14.5033 4.054336 31.683452 -2.871232
2007-05-22 08:26:03 51°14.781 2°53.845 14.5174 4.054855 31.691541 -2.871232
2007-05-22 08:26:08 51°14.798 2°53.849 14.5332 4.054544 31.689544 -2.871232
2007-05-22 08:26:13 51°14.814 2°53.851 14.5446 4.053403 31.68032 -2.871232
2007-05-22 08:26:18 51°14.831 2°53.85 14.5532 4.051537 31.662629 -2.871232
2007-05-22 08:26:23 51°14.848 2°53.846 14.5608 4.051537 31.662629 -2.871232
2007-05-22 08:26:28 51°14.865 2°53.84 14.5641 4.049048 31.637381 -2.871232
2007-05-22 08:26:33 51°14.88 2°53.83 14.5685 4.045108 31.595939 -2.871232
2007-05-22 08:26:38 51°14.896 2°53.82 14.5684 4.039508 31.53724 -2.871232
2007-05-22 08:26:43 51°14.911 2°53.806 14.5657 4.034635 31.483486 -2.871232
2007-05-22 08:26:48 51°14.925 2°53.79 14.5627 4.029761 31.429073 -2.871232
2007-05-22 08:26:53 51°14.94 2°53.773 14.5601 4.029761 31.429073 -2.871232
2007-05-22 08:26:58 51°14.953 2°53.756 14.5572 4.026132 31.388345 -2.871232
2007-05-22 08:27:03 51°14.966 2°53.736 14.556 4.024473 31.36758 -2.871232
2007-05-22 08:27:08 51°14.979 2°53.717 14.548 4.023125 31.350935 -2.871232
2007-05-22 08:27:13 51°14.991 2°53.695 14.5441 4.022918 31.347019 -2.871232
2007-05-22 08:27:18 51°15.001 2°53.671 14.5352 4.023954 31.355318 -2.871232
2007-05-22 08:27:23 51°15.01 2°53.647 14.5349 4.023954 31.355318 -2.871232
2007-05-22 08:27:28 51°15.019 2°53.622 14.528 4.025821 31.372232 -2.871232
2007-05-22 08:27:33 51°15.028 2°53.596 14.5179 4.027272 31.386251 -2.871232
2007-05-22 08:27:38 51°15.036 2°53.57 14.5203 4.02862 31.400078 -2.871232
2007-05-22 08:27:43 51°15.043 2°53.543 14.5072 4.030176 31.417123 -2.871232
2007-05-22 08:27:48 51°15.048 2°53.515 14.4986 4.032457 31.442601 -2.871232
2007-05-22 08:27:53 51°15.051 2°53.487 14.4901 4.032457 31.442601 -2.871232
2007-05-22 08:27:58 51°15.052 2°53.458 14.4821 4.035049 31.469379 -2.871232
2007-05-22 08:28:03 51°15.051 2°53.429 14.4787 4.038471 31.50338 -2.871232
2007-05-22 08:28:08 51°15.049 2°53.4 14.4735 4.0421 31.541328 -2.871232
2007-05-22 08:28:13 51°15.047 2°53.371 14.4717 4.045315 31.573555 -2.871232
2007-05-22 08:28:18 51°15.043 2°53.342 14.457 4.049255 31.615672 -2.871232
2007-05-22 08:28:23 51°15.039 2°53.313 14.4588 4.049255 31.615672 -2.871232
2007-05-22 08:28:28 51°15.034 2°53.285 14.4503 4.053299 31.658005 -2.871232
2007-05-22 08:28:33 51°15.03 2°53.256 14.4392 4.057551 31.704314 -2.871232
2007-05-22 08:28:38 51°15.025 2°53.227 14.4398 4.060247 31.733524 -2.871232
2007-05-22 08:28:43 51°15.02 2°53.198 14.4356 4.061906 31.751561 -2.871232
2007-05-22 08:28:48 51°15.015 2°53.169 14.4193 4.064706 31.781697 -2.871232
2007-05-22 08:28:53 51°15.011 2°53.14 14.4234 4.064706 31.781697 -2.871232
2007-05-22 08:28:58 51°15.007 2°53.11 14.4066 4.066884 31.806421 -2.871232
2007-05-22 08:29:03 51°15.003 2°53.081 14.4099 4.068854 31.830064 -2.871232
2007-05-22 08:29:08 51°14.999 2°53.051 14.408 4.070928 31.854624 -2.871232
2007-05-22 08:29:13 51°14.996 2°53.022 14.391 4.071965 31.868706 -2.871232
2007-05-22 08:29:18 51°14.992 2°52.992 14.382 4.073521 31.888039 -2.871232
2007-05-22 08:29:23 51°14.989 2°52.962 14.3757 4.073521 31.888039 -2.871232
2007-05-22 08:29:28 51°14.985 2°52.932 14.3719 4.074661 31.903038 -2.871232
2007-05-22 08:29:33 51°14.982 2°52.902 14.3683 4.075906 31.92039 -2.871232
2007-05-22 08:29:38 51°14.978 2°52.873 14.353 4.076632 31.931777 -2.871232
2007-05-22 08:29:43 51°14.975 2°52.843 14.3551 4.077461 31.944074 -2.871232
2007-05-22 08:29:48 51°14.971 2°52.814 14.3599 4.078499 31.960355 -2.871232
2007-05-22 08:29:53 51°14.967 2°52.784 14.3579 4.078499 31.960355 -2.871232
2007-05-22 08:29:58 51°14.963 2°52.755 14.3625 4.079536 31.978088 -2.871232
2007-05-22 08:30:03 51°14.959 2°52.725 14.361 4.080262 31.992388 -2.871232
2007-05-22 08:30:08 51°14.955 2°52.695 14.3641 4.080677 32.002527 -2.871232
2007-05-22 08:30:13 51°14.951 2°52.665 14.3575 4.08161 32.017931 -2.871232
2007-05-22 08:30:18 51°14.947 2°52.636 14.3524 4.081714 32.021736 -2.871232
2007-05-22 08:30:23 51°14.942 2°52.606 14.3376 4.081714 32.021736 -2.871232
2007-05-22 08:30:28 51°14.939 2°52.576 14.3279 4.082025 32.025182 -2.871232
2007-05-22 08:30:33 51°14.934 2°52.546 14.3151 4.082025 32.025182 -2.871232
2007-05-22 08:30:38 51°14.931 2°52.517 14.3134 4.082751 32.031534 -2.871232
2007-05-22 08:30:43 51°14.927 2°52.487 14.3073 4.083166 32.035164 -2.871232
2007-05-22 08:30:48 51°14.923 2°52.457 14.2984 4.083891 32.044416 -2.871232
2007-05-22 08:30:53 51°14.919 2°52.427 14.2985 4.083891 32.044416 -2.871232
2007-05-22 08:30:58 51°14.915 2°52.396 14.2959 4.085343 32.063651 -2.871232
2007-05-22 08:31:03 51°14.911 2°52.366 14.2938 4.086484 32.081623 -2.871232
2007-05-22 08:31:08 51°14.907 2°52.336 14.2846 4.087936 32.10451 -2.871232
2007-05-22 08:31:13 51°14.902 2°52.306 14.2835 4.08804 32.113418 -2.871232
2007-05-22 08:31:18 51°14.898 2°52.276 14.2746 4.088144 32.120874 -2.871232
2007-05-22 08:31:23 51°14.894 2°52.246 14.2827 4.088144 32.120874 -2.871232
2007-05-22 08:31:28 51°14.89 2°52.216 14.2729 4.089077 32.133422 -2.871232
2007-05-22 08:31:33 51°14.886 2°52.186 14.2779 4.088974 32.138339 -2.871232
2007-05-22 08:31:38 51°14.881 2°52.155 14.2776 4.089285 32.145437 -2.871232
2007-05-22 08:31:43 51°14.877 2°52.125 14.2795 4.090114 32.157814 -2.871232
2007-05-22 08:31:48 51°14.873 2°52.095 14.2779 4.090737 32.167647 -2.871232
2007-05-22 08:31:53 51°14.869 2°52.065 14.2803 4.090737 32.167647 -2.871232
2007-05-22 08:31:58 51°14.865 2°52.035 14.2849 4.090944 32.171654 -2.871232
2007-05-22 08:32:03 51°14.861 2°52.004 14.2837 4.091463 32.179122 -2.871232
2007-05-22 08:32:08 51°14.857 2°51.974 14.2824 4.091359 32.178942 -2.871232
2007-05-22 08:32:13 51°14.853 2°51.944 14.2827 4.091255 32.178032 -2.871232
2007-05-22 08:32:18 51°14.849 2°51.914 14.2809 4.091359 32.178212 -2.871232
2007-05-22 08:32:23 51°14.845 2°51.884 14.2727 4.091359 32.178212 -2.871232
2007-05-22 08:32:28 51°14.841 2°51.854 14.2705 4.091359 32.178212 -2.871232
2007-05-22 08:32:33 51°14.837 2°51.823 14.2563 4.091255 32.175843 -2.871232
2007-05-22 08:32:38 51°14.832 2°51.793 14.2531 4.091359 32.176023 -2.871232
2007-05-22 08:32:43 51°14.828 2°51.763 14.2627 4.091463 32.176933 -2.871232
2007-05-22 08:32:48 51°14.823 2°51.734 14.261 4.091463 32.177662 -2.871232
2007-05-22 08:32:53 51°14.819 2°51.704 14.2618 4.091463 32.177662 -2.871232
2007-05-22 08:32:58 51°14.815 2°51.675 14.2646 4.09167 32.180941 -2.871232
2007-05-22 08:33:03 51°14.811 2°51.647 14.2702 4.091774 32.185501 -2.871232
2007-05-22 08:33:08 51°14.808 2°51.62 14.2701 4.092189 32.195713 -2.871232
2007-05-22 08:33:13 51°14.804 2°51.593 14.2731 4.091982 32.198275 -2.871232
2007-05-22 08:33:18 51°14.801 2°51.567 14.2791 4.091567 32.195365 -2.871232
2007-05-22 08:33:23 51°14.797 2°51.542 14.2767 4.091567 32.195365 -2.871232
2007-05-22 08:33:28 51°14.794 2°51.517 14.2777 4.088248 32.166238 -2.871232
2007-05-22 08:33:33 51°14.79 2°51.494 14.2702 4.090322 32.182981 -2.871232
2007-05-22 08:33:38 51°14.787 2°51.471 14.2683 4.089907 32.177151 -2.871232
2007-05-22 08:33:43 51°14.784 2°51.449 14.2634 4.089389 32.169681 -2.871232
2007-05-22 08:33:48 51°14.781 2°51.428 14.2703 4.090426 32.177321 -2.871232
2007-05-22 08:33:53 51°14.778 2°51.407 14.2648 4.090426 32.177321 -2.871232
2007-05-22 08:33:58 51°14.775 2°51.386 14.2617 4.091152 32.182231 -2.871232
2007-05-22 08:34:03 51°14.772 2°51.366 14.2689 4.089181 32.164213 -2.871232
2007-05-22 08:34:08 51°14.769 2°51.347 14.2591 4.090944 32.181141 -2.871232
2007-05-22 08:34:13 51°14.766 2°51.328 14.2582 4.089907 32.174961 -2.871232
2007-05-22 08:34:18 51°14.764 2°51.309 14.2581 4.090737 32.183701 -2.871232
2007-05-22 08:34:23 51°14.761 2°51.29 14.2554 4.090737 32.183701 -2.871232
2007-05-22 08:34:28 51°14.758 2°51.272 14.2552 4.090841 32.184611 -2.871232
2007-05-22 08:34:33 51°14.755 2°51.255 14.2545 4.091048 32.188622 -2.871232
2007-05-22 08:34:38 51°14.753 2°51.239 14.2527 4.090944 32.188442 -2.871232
2007-05-22 08:34:43 51°14.75 2°51.223 14.2485 4.091152 32.192454 -2.871232
2007-05-22 08:34:48 51°14.748 2°51.207 14.249 4.090737 32.190274 -2.871232
2007-05-22 08:34:53 51°14.746 2°51.192 14.2459 4.090737 32.190274 -2.871232
2007-05-22 08:34:58 51°14.743 2°51.178 14.2474 4.091359 32.197197 -2.871232
2007-05-22 08:35:03 51°14.741 2°51.164 14.2479 4.091359 32.198658 -2.871232
2007-05-22 08:35:08 51°14.739 2°51.151 14.2494 4.091774 32.204492 -2.871232
2007-05-22 08:35:13 51°14.737 2°51.138 14.2512 4.093122 32.217791 -2.871232
2007-05-22 08:35:18 51°14.736 2°51.125 14.2494 4.093019 32.218343 -2.871232
2007-05-22 08:35:23 51°14.734 2°51.112 14.2488 4.093019 32.218343 -2.871232
2007-05-22 08:35:28 51°14.732 2°51.1 14.2427 4.092915 32.218895 -2.871232
2007-05-22 08:35:33 51°14.73 2°51.089 14.2473 4.0925 32.216715 -2.871232
2007-05-22 08:35:38 51°14.729 2°51.077 14.2502 4.093641 32.226733 -2.871232
2007-05-22 08:35:43 51°14.728 2°51.066 14.2417 4.091982 32.211431 -2.871232
2007-05-22 08:35:48 51°14.726 2°51.055 14.2419 4.093434 32.22418 -2.871232
2007-05-22 08:35:53 51°14.725 2°51.045 14.2449 4.093434 32.22418 -2.871232
2007-05-22 08:35:58 51°14.724 2°51.034 14.2415 4.093537 32.225822 -2.871232
2007-05-22 08:36:03 51°14.723 2°51.025 14.2461 4.093641 32.227464 -2.871232
2007-05-22 08:36:08 51°14.722 2°51.016 14.2433 4.093537 32.226554 -2.871232
2007-05-22 08:36:13 51°14.722 2°51.007 14.244 4.093848 32.230018 -2.871232
2007-05-22 08:36:18 51°14.721 2°50.999 14.2424 4.093952 32.232392 -2.871232
2007-05-22 08:36:23 51°14.721 2°50.991 14.2404 4.093952 32.232392 -2.871232
2007-05-22 08:36:28 51°14.72 2°50.984 14.2425 4.093952 32.233124 -2.871232
2007-05-22 08:36:33 51°14.72 2°50.978 14.2381 4.093952 32.233124 -2.871232
2007-05-22 08:36:38 51°14.72 2°50.972 14.2386 4.093952 32.232392 -2.871232
2007-05-22 08:36:43 51°14.719 2°50.966 14.242 4.094056 32.234034 -2.871232
2007-05-22 08:36:48 51°14.719 2°50.961 14.241 4.094056 32.234766 -2.871232
2007-05-22 08:36:53 51°14.718 2°50.956 14.2422 4.094056 32.234766 -2.871232
2007-05-22 08:36:58 51°14.718 2°50.951 14.2414 4.09416 32.236409 -2.871232
2007-05-22 08:37:03 51°14.717 2°50.947 14.244 4.09416 32.237141 -2.871232
2007-05-22 08:37:08 51°14.716 2°50.943 14.2433 4.094367 32.240427 -2.871232
2007-05-22 08:37:13 51°14.716 2°50.939 14.24 4.094263 32.239516 -2.871232
2007-05-22 08:37:18 51°14.715 2°50.935 14.2401 4.09416 32.238605 -2.871232
2007-05-22 08:37:23 51°14.714 2°50.932 14.2438 4.09416 32.238605 -2.871232
2007-05-22 08:37:28 51°14.713 2°50.929 14.2452 4.094263 32.239516 -2.871232
2007-05-22 08:37:33 51°14.713 2°50.926 14.2441 4.094263 32.238784 -2.871232
2007-05-22 08:37:38 51°14.712 2°50.924 14.2415 4.09416 32.237141 -2.871232
2007-05-22 08:37:43 51°14.711 2°50.921 14.241 4.094263 32.238052 -2.871232
2007-05-22 08:37:48 51°14.71 2°50.919 14.2441 4.094367 32.239695 -2.871232
2007-05-22 08:37:53 51°14.709 2°50.917 14.2448 4.094367 32.239695 -2.871232
2007-05-22 08:37:58 51°14.708 2°50.916 14.2328 4.094367 32.238963 -2.871232
2007-05-22 08:38:03 51°14.706 2°50.914 14.2263 4.094367 32.238231 -2.871232
2007-05-22 08:38:08 51°14.706 2°50.912 14.228 4.094471 32.239142 -2.871232
2007-05-22 08:38:13 51°14.704 2°50.91 14.227 4.094471 32.239874 -2.871232
2007-05-22 08:38:18 51°14.703 2°50.908 14.2178 4.094574 32.240785 -2.871232
2007-05-22 08:38:23 51°14.702 2°50.907 14.2169 4.094574 32.240785 -2.871232
2007-05-22 08:38:28 51°14.701 2°50.905 14.213 4.094678 32.2395 -2.871232
2007-05-22 08:38:33 51°14.7 2°50.903 14.211 4.095197 32.241126 -2.871232
2007-05-22 08:38:38 51°14.699 2°50.901 14.2095 4.0953 32.243501 -2.871232
2007-05-22 08:38:43 51°14.698 2°50.9 14.2072 4.094367 32.236767 -2.871232
2007-05-22 08:38:48 51°14.697 2°50.898 14.2031 4.09333 32.229854 -2.871232
2007-05-22 08:38:53 51°14.696 2°50.896 14.2066 4.09333 32.229854 -2.871232
2007-05-22 08:38:58 51°14.695 2°50.894 14.204 4.093123 32.231691 -2.871232
2007-05-22 08:39:03 51°14.693 2°50.893 14.2069 4.093019 32.233708 -2.871232
2007-05-22 08:39:08 51°14.692 2°50.891 14.2049 4.093019 32.237368 -2.871232
2007-05-22 08:39:13 51°14.691 2°50.889 14.2032 4.092812 32.238475 -2.871232
2007-05-22 08:39:18 51°14.69 2°50.888 14.2036 4.092812 32.240672 -2.871232
2007-05-22 08:39:23 51°14.689 2°50.886 14.2028 4.092812 32.240672 -2.871232
2007-05-22 08:39:28 51°14.688 2°50.884 14.2026 4.092812 32.242869 -2.871232
2007-05-22 08:39:33 51°14.687 2°50.882 14.2035 4.092708 32.24269 -2.871232
2007-05-22 08:39:38 51°14.686 2°50.88 14.2055 4.092604 32.242512 -2.871232
2007-05-22 08:39:43 51°14.685 2°50.879 14.2057 4.092604 32.242512 -2.871232
2007-05-22 08:39:48 51°14.684 2°50.877 14.2077 4.092708 32.244156 -2.871232
2007-05-22 08:39:53 51°14.683 2°50.875 14.2039 4.092708 32.244156 -2.871232
2007-05-22 08:39:58 51°14.682 2°50.873 14.2055 4.092604 32.243244 -2.871232
2007-05-22 08:40:03 51°14.681 2°50.871 14.2049 4.092812 32.2458 -2.871232
2007-05-22 08:40:08 51°14.68 2°50.869 14.2048 4.092812 32.2458 -2.871232
2007-05-22 08:40:13 51°14.679 2°50.867 14.2039 4.092812 32.245067 -2.871232
2007-05-22 08:40:18 51°14.677 2°50.865 14.2042 4.092915 32.245978 -2.871232
2007-05-22 08:40:23 51°14.676 2°50.863 14.2038 4.092915 32.245978 -2.871232
2007-05-22 08:40:28 51°14.675 2°50.861 14.2016 4.093019 32.24689 -2.871232
2007-05-22 08:40:33 51°14.674 2°50.859 14.2025 4.093019 32.247623 -2.871232
2007-05-22 08:40:38 51°14.673 2°50.858 14.2025 4.093019 32.24689 -2.871232
2007-05-22 08:40:43 51°14.672 2°50.856 14.2005 4.093123 32.247801 -2.871232
2007-05-22 08:40:48 51°14.671 2°50.853 14.1998 4.093227 32.248713 -2.871232
2007-05-22 08:40:53 51°14.67 2°50.852 14.2004 4.093227 32.248713 -2.871232
2007-05-22 08:40:58 51°14.669 2°50.85 14.1987 4.093227 32.249445 -2.871232
2007-05-22 08:41:03 51°14.667 2°50.848 14.1999 4.093434 32.252001 -2.871232
2007-05-22 08:41:08 51°14.666 2°50.846 14.1998 4.09333 32.251822 -2.871232
2007-05-22 08:41:13 51°14.665 2°50.844 14.2007 4.093434 32.253467 -2.871232
2007-05-22 08:41:18 51°14.664 2°50.842 14.2001 4.093538 32.255111 -2.871232
2007-05-22 08:41:23 51°14.663 2°50.84 14.1989 4.093538 32.255111 -2.871232
2007-05-22 08:41:28 51°14.662 2°50.838 14.1986 4.093538 32.255111 -2.871232
2007-05-22 08:41:33 51°14.66 2°50.836 14.1979 4.093538 32.255844 -2.871232
2007-05-22 08:41:38 51°14.659 2°50.834 14.1989 4.093538 32.255844 -2.871232
2007-05-22 08:41:43 51°14.658 2°50.832 14.1991 4.093538 32.255844 -2.871232
2007-05-22 08:41:48 51°14.657 2°50.83 14.1976 4.093538 32.255844 -2.871232
2007-05-22 08:41:53 51°14.655 2°50.828 14.1996 4.093538 32.256577 -2.871232
2007-05-22 08:41:58 51°14.654 2°50.826 14.1998 4.093538 32.256577 -2.871232
2007-05-22 08:42:03 51°14.653 2°50.824 14.1989 4.093538 32.256577 -2.871232
2007-05-22 08:42:08 51°14.652 2°50.822 14.1982 4.093538 32.256577 -2.871232
2007-05-22 08:42:13 51°14.65 2°50.82 14.2001 4.093641 32.258222 -2.871232
2007-05-22 08:42:18 51°14.649 2°50.818 14.1984 4.093538 32.25731 -2.871232
2007-05-22 08:42:23 51°14.648 2°50.816 14.1989 4.093538 32.25731 -2.871232
2007-05-22 08:42:28 51°14.646 2°50.814 14.2002 4.093641 32.258222 -2.871232
2007-05-22 08:42:33 51°14.645 2°50.812 14.1996 4.093538 32.25731 -2.871232
2007-05-22 08:42:38 51°14.644 2°50.811 14.2007 4.093641 32.257489 -2.871232
2007-05-22 08:42:43 51°14.643 2°50.809 14.2037 4.093745 32.2584 -2.871232
2007-05-22 08:42:48 51°14.642 2°50.807 14.2015 4.093745 32.259133 -2.871232
2007-05-22 08:42:53 51°14.64 2°50.805 14.2032 4.093745 32.259133 -2.871232
2007-05-22 08:42:58 51°14.639 2°50.803 14.2036 4.093745 32.2584 -2.871232
2007-05-22 08:43:03 51°14.638 2°50.801 14.2051 4.093745 32.2584 -2.871232
2007-05-22 08:43:08 51°14.637 2°50.799 14.2048 4.093745 32.2584 -2.871232
2007-05-22 08:43:13 51°14.635 2°50.797 14.202 4.093641 32.257489 -2.871232
2007-05-22 08:43:18 51°14.634 2°50.794 14.2039 4.093538 32.255844 -2.871232
2007-05-22 08:43:23 51°14.632 2°50.792 14.2037 4.093538 32.255844 -2.871232
2007-05-22 08:43:28 51°14.631 2°50.789 14.205 4.093641 32.256756 -2.871232
2007-05-22 08:43:33 51°14.629 2°50.786 14.2071 4.093538 32.254378 -2.871232
2007-05-22 08:43:38 51°14.627 2°50.783 14.2104 4.093538 32.253645 -2.871232
2007-05-22 08:43:43 51°14.624 2°50.779 14.2174 4.093641 32.253824 -2.871232
2007-05-22 08:43:48 51°14.622 2°50.775 14.2248 4.093849 32.25638 -2.871232
2007-05-22 08:43:53 51°14.62 2°50.771 14.221 4.093849 32.25638 -2.871232
2007-05-22 08:43:58 51°14.617 2°50.766 14.2253 4.093849 32.25638 -2.871232
2007-05-22 08:44:03 51°14.614 2°50.761 14.2325 4.093849 32.255647 -2.871232
2007-05-22 08:44:08 51°14.612 2°50.755 14.2348 4.093849 32.254914 -2.871232
2007-05-22 08:44:13 51°14.609 2°50.749 14.2352 4.093849 32.252716 -2.871232
2007-05-22 08:44:18 51°14.606 2°50.743 14.2355 4.093849 32.249785 -2.871232
2007-05-22 08:44:23 51°14.604 2°50.737 14.2327 4.093849 32.249785 -2.871232
2007-05-22 08:44:28 51°14.601 2°50.73 14.2325 4.094056 32.247213 -2.871232
2007-05-22 08:44:33 51°14.598 2°50.723 14.2326 4.094263 32.246105 -2.871232
2007-05-22 08:44:38 51°14.596 2°50.716 14.2339 4.094471 32.243534 -2.871232
2007-05-22 08:44:43 51°14.593 2°50.709 14.2324 4.094574 32.240785 -2.871232
2007-05-22 08:44:48 51°14.591 2°50.702 14.2316 4.094574 32.238589 -2.871232
2007-05-22 08:44:53 51°14.589 2°50.696 14.2311 4.094574 32.238589 -2.871232
2007-05-22 08:44:58 51°14.587 2°50.689 14.2298 4.094678 32.238768 -2.871232
2007-05-22 08:45:03 51°14.585 2°50.682 14.2238 4.094782 32.239678 -2.871232
2007-05-22 08:45:08 51°14.583 2°50.676 14.2224 4.094678 32.238768 -2.871232
2007-05-22 08:45:13 51°14.581 2°50.67 14.2222 4.094574 32.237857 -2.871232
2007-05-22 08:45:18 51°14.579 2°50.664 14.2187 4.094574 32.238589 -2.871232
2007-05-22 08:45:23 51°14.577 2°50.657 14.2192 4.094574 32.238589 -2.871232
2007-05-22 08:45:28 51°14.576 2°50.651 14.2169 4.094574 32.238589 -2.871232
2007-05-22 08:45:33 51°14.574 2°50.645 14.2153 4.094471 32.23841 -2.871232
2007-05-22 08:45:38 51°14.572 2°50.64 14.2136 4.094574 32.241517 -2.871232
2007-05-22 08:45:43 51°14.57 2°50.634 14.2122 4.094471 32.242802 -2.871232
2007-05-22 08:45:48 51°14.569 2°50.628 14.2125 4.094471 32.244998 -2.871232
2007-05-22 08:45:53 51°14.567 2°50.622 14.2102 4.094471 32.244998 -2.871232
2007-05-22 08:45:58 51°14.565 2°50.617 14.2084 4.094367 32.245552 -2.871232
2007-05-22 08:46:03 51°14.564 2°50.611 14.2029 4.094263 32.246105 -2.871232
2007-05-22 08:46:08 51°14.562 2°50.606 14.2013 4.094263 32.24757 -2.871232
2007-05-22 08:46:13 51°14.561 2°50.601 14.2004 4.094263 32.249768 -2.871232
2007-05-22 08:46:18 51°14.559 2°50.595 14.2006 4.094264 32.251233 -2.871232
2007-05-22 08:46:23 51°14.558 2°50.59 14.1985 4.094264 32.251233 -2.871232
2007-05-22 08:46:28 51°14.556 2°50.585 14.1983 4.09416 32.251054 -2.871232
2007-05-22 08:46:33 51°14.554 2°50.578 14.199 4.09416 32.252519 -2.871232
2007-05-22 08:46:38 51°14.553 2°50.571 14.1974 4.09416 32.254717 -2.871232
2007-05-22 08:46:43 51°14.551 2°50.563 14.2002 4.09416 32.257649 -2.871232
2007-05-22 08:46:48 51°14.549 2°50.555 14.1991 4.09416 32.259848 -2.871232
2007-05-22 08:46:53 51°14.548 2°50.546 14.2018 4.09416 32.259848 -2.871232
2007-05-22 08:46:58 51°14.547 2°50.536 14.1993 4.094056 32.260402 -2.871232
2007-05-22 08:47:03 51°14.546 2°50.526 14.1994 4.093953 32.260957 -2.871232
2007-05-22 08:47:08 51°14.546 2°50.517 14.1999 4.093849 32.260778 -2.871232
2007-05-22 08:47:13 51°14.546 2°50.508 14.1988 4.093745 32.259867 -2.871232
2007-05-22 08:47:18 51°14.546 2°50.499 14.2015 4.093641 32.258222 -2.871232
2007-05-22 08:47:23 51°14.547 2°50.49 14.2007 4.093641 32.258222 -2.871232
2007-05-22 08:47:28 51°14.547 2°50.482 14.2054 4.093745 32.2584 -2.871232
2007-05-22 08:47:33 51°14.548 2°50.475 14.2064 4.093745 32.2584 -2.871232
2007-05-22 08:47:38 51°14.549 2°50.467 14.209 4.093745 32.2584 -2.871232
2007-05-22 08:47:43 51°14.55 2°50.46 14.212 4.093745 32.2584 -2.871232
2007-05-22 08:47:48 51°14.551 2°50.452 14.2126 4.093849 32.259312 -2.871232
2007-05-22 08:47:53 51°14.553 2°50.444 14.215 4.093849 32.259312 -2.871232
2007-05-22 08:47:58 51°14.555 2°50.437 14.2171 4.093641 32.256756 -2.871232
2007-05-22 08:48:03 51°14.557 2°50.43 14.2204 4.093641 32.256756 -2.871232
2007-05-22 08:48:08 51°14.56 2°50.422 14.2255 4.093538 32.254378 -2.871232
2007-05-22 08:48:13 51°14.563 2°50.415 14.2259 4.093434 32.251268 -2.871232
2007-05-22 08:48:18 51°14.566 2°50.409 14.2283 4.093434 32.249803 -2.871232
2007-05-22 08:48:23 51°14.569 2°50.403 14.2326 4.093434 32.249803 -2.871232
2007-05-22 08:48:28 51°14.572 2°50.397 14.2343 4.09333 32.246694 -2.871232
2007-05-22 08:48:33 51°14.576 2°50.391 14.2375 4.093434 32.245407 -2.871232
2007-05-22 08:48:38 51°14.58 2°50.386 14.2406 4.09333 32.242299 -2.871232
2007-05-22 08:48:43 51°14.584 2°50.382 14.2414 4.093434 32.240281 -2.871232
2007-05-22 08:48:48 51°14.589 2°50.378 14.244 4.093641 32.239906 -2.871232
2007-05-22 08:48:53 51°14.594 2°50.375 14.2468 4.093641 32.239906 -2.871232
2007-05-22 08:48:58 51°14.598 2°50.373 14.2491 4.093745 32.237889 -2.871232
2007-05-22 08:49:03 51°14.603 2°50.372 14.2491 4.093849 32.235872 -2.871232
2007-05-22 08:49:08 51°14.608 2°50.371 14.2488 4.093952 32.234587 -2.871232
2007-05-22 08:49:13 51°14.614 2°50.371 14.251 4.094056 32.231839 -2.871232
2007-05-22 08:49:18 51°14.619 2°50.373 14.2525 4.094056 32.230376 -2.871232
2007-05-22 08:49:23 51°14.623 2°50.375 14.2526 4.094056 32.230376 -2.871232
2007-05-22 08:49:28 51°14.628 2°50.378 14.2535 4.094159 32.22836 -2.871232
2007-05-22 08:49:33 51°14.632 2°50.381 14.2554 4.094263 32.227076 -2.871232
2007-05-22 08:49:38 51°14.635 2°50.385 14.2575 4.094367 32.226524 -2.871232
2007-05-22 08:49:43 51°14.639 2°50.389 14.2572 4.094574 32.226882 -2.871232
2007-05-22 08:49:48 51°14.642 2°50.394 14.2575 4.094678 32.227062 -2.871232
2007-05-22 08:49:53 51°14.644 2°50.399 14.258 4.094678 32.227062 -2.871232
2007-05-22 08:49:58 51°14.646 2°50.404 14.2578 4.094678 32.225599 -2.871232
2007-05-22 08:50:03 51°14.648 2°50.41 14.2588 4.094678 32.224868 -2.871232
2007-05-22 08:50:08 51°14.649 2°50.415 14.2571 4.094678 32.223405 -2.871232
2007-05-22 08:50:13 51°14.649 2°50.421 14.2579 4.094678 32.221943 -2.871232
2007-05-22 08:50:18 51°14.649 2°50.427 14.2583 4.094781 32.221391 -2.871232
2007-05-22 08:50:23 51°14.648 2°50.432 14.2589 4.094781 32.221391 -2.871232
2007-05-22 08:50:28 51°14.647 2°50.438 14.2565 4.094885 32.222302 -2.871232
2007-05-22 08:50:33 51°14.645 2°50.443 14.2571 4.094885 32.220839 -2.871232
2007-05-22 08:50:38 51°14.643 2°50.448 14.2566 4.094989 32.22175 -2.871232
2007-05-22 08:50:43 51°14.64 2°50.453 14.254 4.094989 32.22175 -2.871232
2007-05-22 08:50:48 51°14.637 2°50.457 14.2534 4.095093 32.221929 -2.871232
2007-05-22 08:50:53 51°14.634 2°50.461 14.2525 4.094989 32.221019 -2.871232
2007-05-22 08:50:58 51°14.63 2°50.464 14.2517 4.094989 32.221019 -2.871232
2007-05-22 08:51:03 51°14.626 2°50.467 14.2507 4.094989 32.221019 -2.871232
2007-05-22 08:51:08 51°14.622 2°50.469 14.2497 4.095093 32.221929 -2.871232
2007-05-22 08:51:13 51°14.618 2°50.471 14.2499 4.095093 32.22266 -2.871232
2007-05-22 08:51:18 51°14.613 2°50.472 14.2473 4.089907 32.177881 -2.871232
2007-05-22 08:51:23 51°14.608 2°50.473 14.2473 4.089907 32.177881 -2.871232
2007-05-22 08:51:28 51°14.603 2°50.472 14.2469 4.095093 32.224853 -2.871232
2007-05-22 08:51:33 51°14.598 2°50.471 14.2467 4.095093 32.225585 -2.871232
2007-05-22 08:51:38 51°14.592 2°50.47 14.2463 4.095093 32.226316 -2.871232
2007-05-22 08:51:43 51°14.587 2°50.468 14.2437 4.095093 32.227778 -2.871232
2007-05-22 08:51:48 51°14.582 2°50.466 14.2434 4.094989 32.226868 -2.871232
2007-05-22 08:51:53 51°14.576 2°50.463 14.2417 4.094989 32.226868 -2.871232
2007-05-22 08:51:58 51°14.57 2°50.46 14.2406 4.095093 32.22851 -2.871232
2007-05-22 08:52:03 51°14.565 2°50.456 14.2383 4.095093 32.229241 -2.871232
2007-05-22 08:52:08 51°14.559 2°50.452 14.2359 4.094989 32.229062 -2.871232
2007-05-22 08:52:13 51°14.554 2°50.448 14.2337 4.095093 32.230704 -2.871232
2007-05-22 08:52:18 51°14.548 2°50.443 14.2317 4.095093 32.232167 -2.871232
2007-05-22 08:52:23 51°14.543 2°50.438 14.2304 4.095093 32.232167 -2.871232
2007-05-22 08:52:28 51°14.537 2°50.433 14.2292 4.095093 32.232898 -2.871232
2007-05-22 08:52:33 51°14.532 2°50.427 14.2257 4.095093 32.234361 -2.871232
2007-05-22 08:52:38 51°14.526 2°50.422 14.2215 4.095093 32.235825 -2.871232
2007-05-22 08:52:43 51°14.521 2°50.416 14.2191 4.095093 32.23802 -2.871232
2007-05-22 08:52:48 51°14.515 2°50.409 14.215 4.095093 32.239483 -2.871232
2007-05-22 08:52:53 51°14.51 2°50.403 14.2105 4.095093 32.241679 -2.871232
2007-05-22 08:52:58 51°14.505 2°50.396 14.2079 4.095093 32.241679 -2.871232
2007-05-22 08:53:03 51°14.5 2°50.389 14.2038 4.094989 32.242232 -2.871232
2007-05-22 08:53:08 51°14.495 2°50.381 14.201 4.094989 32.244428 -2.871232
2007-05-22 08:53:13 51°14.49 2°50.374 14.1998 4.095093 32.248268 -2.871232
2007-05-22 08:53:18 51°14.486 2°50.366 14.1946 4.094989 32.250286 -2.871232
2007-05-22 08:53:23 51°14.481 2°50.358 14.1916 4.094989 32.250286 -2.871232
2007-05-22 08:53:28 51°14.477 2°50.35 14.1895 4.094989 32.253216 -2.871232
2007-05-22 08:53:33 51°14.473 2°50.342 14.1873 4.094989 32.257612 -2.871232
2007-05-22 08:53:38 51°14.469 2°50.334 14.1884 4.094886 32.259632 -2.871232
2007-05-22 08:53:43 51°14.465 2°50.326 14.1895 4.094782 32.260919 -2.871232
2007-05-22 08:53:48 51°14.461 2°50.318 14.1917 4.094782 32.263851 -2.871232
2007-05-22 08:53:53 51°14.457 2°50.31 14.1904 4.094782 32.263851 -2.871232
2007-05-22 08:53:58 51°14.453 2°50.302 14.1933 4.094782 32.267517 -2.871232
2007-05-22 08:54:03 51°14.449 2°50.295 14.1911 4.094886 32.271362 -2.871232
2007-05-22 08:54:08 51°14.444 2°50.288 14.191 4.094886 32.274296 -2.871232
2007-05-22 08:54:13 51°14.439 2°50.281 14.1942 4.094782 32.275585 -2.871232